Wetterdaten: aktuell Sonntag, 20.09.2020 22:30
Datum Zeit Temp. 2m Temp. 5cm Temp. -10cm Feuchte 2m Luftdruck Regen Wind Richtung Richtung Taupunkt Windchill Windben
20.09.2020 22:30 9,1 C 6,3 C 16,4 C 83 % 1016,5 hPa 0,0 l/m 0,0 km/h (0 Bft) S-SO 157 6,4 C 9,1 C 0,0 km/h (0 Bft)
20.09.2020 22:28 9,0 C 6,6 C 16,4 C 83 % 1016,5 hPa 0,0 l/m 0,0 km/h (0 Bft) O-SO 112 6,3 C 9,0 C 0,0 km/h (0 Bft)
20.09.2020 22:26 9,0 C 6,8 C 16,5 C 83 % 1016,5 hPa 0,0 l/m 0,2 km/h (0 Bft) O-SO 112 6,3 C 9,0 C 0,0 km/h (0 Bft)
20.09.2020 22:24 9,2 C 6,9 C 16,5 C 83 % 1016,5 hPa 0,0 l/m 0,3 km/h (0 Bft) O-NO 67 6,5 C 9,2 C 0,0 km/h (0 Bft)
20.09.2020 22:22 9,1 C 6,4 C 16,5 C 82 % 1016,5 hPa 0,0 l/m 0,3 km/h (0 Bft) NO 45 6,2 C 9,1 C 0,0 km/h (0 Bft)
20.09.2020 22:20 9,1 C 6,4 C 16,5 C 82 % 1016,5 hPa 0,0 l/m 0,6 km/h (0 Bft) S-SO 157 6,2 C 9,1 C 0,0 km/h (0 Bft)
20.09.2020 22:18 9,1 C 6,8 C 16,5 C 82 % 1016,5 hPa 0,0 l/m 1,0 km/h (0 Bft) N-NO 22 6,2 C 9,1 C 1,9 km/h (1 Bft)
20.09.2020 22:16 9,1 C 7,4 C 16,5 C 82 % 1016,5 hPa 0,0 l/m 1,0 km/h (0 Bft) O-NO 67 6,2 C 9,1 C 1,9 km/h (1 Bft)
20.09.2020 22:14 9,0 C 7,6 C 16,5 C 82 % 1016,5 hPa 0,0 l/m 0,6 km/h (0 Bft) SO 135 6,1 C 9,0 C 0,0 km/h (0 Bft)
20.09.2020 22:12 9,3 C 7,1 C 16,5 C 82 % 1016,5 hPa 0,0 l/m 0,6 km/h (0 Bft) SO 135 6,4 C 9,3 C 4,2 km/h (1 Bft)
20.09.2020 22:10 9,2 C 7,0 C 16,5 C 82 % 1016,5 hPa 0,0 l/m 0,6 km/h (0 Bft) O-SO 112 6,3 C 9,2 C 4,2 km/h (1 Bft)
20.09.2020 22:08 9,2 C 6,7 C 16,6 C 82 % 1016,5 hPa 0,0 l/m 0,2 km/h (0 Bft) O-NO 67 6,3 C 9,2 C 2,5 km/h (1 Bft)
20.09.2020 22:06 9,2 C 6,8 C 16,6 C 82 % 1016,5 hPa 0,0 l/m 0,2 km/h (0 Bft) SO 135 6,3 C 9,2 C 0,0 km/h (0 Bft)
20.09.2020 22:04 9,4 C 7,0 C 16,6 C 82 % 1016,5 hPa 0,0 l/m 0,2 km/h (0 Bft) W 270 6,5 C 9,4 C 4,1 km/h (1 Bft)
20.09.2020 22:02 9,7 C 7,1 C 16,6 C 82 % 1016,5 hPa 0,0 l/m 0,5 km/h (0 Bft) O-SO 112 6,8 C 9,7 C 4,1 km/h (1 Bft)
20.09.2020 22:00 9,6 C 7,0 C 16,6 C 82 % 1016,5 hPa 0,0 l/m 0,3 km/h (0 Bft) N-NO 22 6,7 C 9,6 C 0,0 km/h (0 Bft)
20.09.2020 21:58 9,4 C 7,6 C 16,6 C 82 % 1016,5 hPa 0,0 l/m 0,3 km/h (0 Bft) O-NO 67 6,5 C 9,4 C 0,0 km/h (0 Bft)
20.09.2020 21:56 9,4 C 7,8 C 16,6 C 82 % 1016,5 hPa 0,0 l/m 0,3 km/h (0 Bft) S 180 6,5 C 9,4 C 0,0 km/h (0 Bft)
20.09.2020 21:54 9,2 C 8,1 C 16,6 C 81 % 1016,5 hPa 0,0 l/m 0,3 km/h (0 Bft) SW 225 6,1 C 9,2 C 2,7 km/h (1 Bft)
20.09.2020 21:52 9,5 C 7,0 C 16,6 C 81 % 1016,5 hPa 0,0 l/m 0,5 km/h (0 Bft) S-SO 157 6,4 C 9,5 C 2,7 km/h (1 Bft)
20.09.2020 21:50 9,4 C 7,2 C 16,6 C 81 % 1016,7 hPa 0,0 l/m 0,6 km/h (0 Bft) O-SO 112 6,3 C 9,4 C 0,0 km/h (0 Bft)
20.09.2020 21:48 9,4 C 7,8 C 16,7 C 81 % 1016,7 hPa 0,0 l/m 0,6 km/h (0 Bft) S-SO 157 6,3 C 9,4 C 0,0 km/h (0 Bft)
20.09.2020 21:46 9,6 C 7,3 C 16,7 C 81 % 1016,7 hPa 0,0 l/m 0,6 km/h (0 Bft) S-SW 202 6,5 C 9,6 C 1,9 km/h (1 Bft)
20.09.2020 21:44 9,7 C 7,2 C 16,7 C 81 % 1016,7 hPa 0,0 l/m 0,6 km/h (0 Bft) SO 135 6,6 C 9,7 C 3,5 km/h (1 Bft)
20.09.2020 21:42 9,6 C 7,6 C 16,7 C 81 % 1016,7 hPa 0,0 l/m 0,5 km/h (0 Bft) O-NO 67 6,5 C 9,6 C 3,5 km/h (1 Bft)
20.09.2020 21:40 9,8 C 7,0 C 16,7 C 81 % 1016,7 hPa 0,0 l/m 0,3 km/h (0 Bft) NO 45 6,7 C 9,8 C 0,0 km/h (0 Bft)
20.09.2020 21:38 9,9 C 7,1 C 16,7 C 81 % 1016,7 hPa 0,0 l/m 0,3 km/h (0 Bft) W 270 6,8 C 9,9 C 0,0 km/h (0 Bft)
20.09.2020 21:36 9,8 C 7,3 C 16,7 C 81 % 1016,7 hPa 0,0 l/m 0,3 km/h (0 Bft) S-SW 202 6,7 C 9,8 C 0,0 km/h (0 Bft)
20.09.2020 21:34 10,0 C 6,9 C 16,7 C 81 % 1016,7 hPa 0,0 l/m 0,3 km/h (0 Bft) O-NO 67 6,9 C 10,0 C 0,0 km/h (0 Bft)
20.09.2020 21:32 9,7 C 6,9 C 16,7 C 81 % 1016,7 hPa 0,0 l/m 0,3 km/h (0 Bft) N-NO 22 6,6 C 9,7 C 2,5 km/h (1 Bft)
20.09.2020 21:30 9,9 C 7,2 C 16,7 C 81 % 1016,5 hPa 0,0 l/m 0,2 km/h (0 Bft) SO 135 6,8 C 9,9 C 2,5 km/h (1 Bft)
20.09.2020 21:28 10,0 C 7,2 C 16,8 C 80 % 1016,5 hPa 0,0 l/m 0,0 km/h (0 Bft) O-NO 67 6,7 C 10,0 C 0,0 km/h (0 Bft)
20.09.2020 21:26 10,0 C 7,2 C 16,8 C 80 % 1016,5 hPa 0,0 l/m 0,0 km/h (0 Bft) W-NW 292 6,7 C 10,0 C 0,0 km/h (0 Bft)
20.09.2020 21:24 9,9 C 7,4 C 16,8 C 81 % 1016,5 hPa 0,0 l/m 0,0 km/h (0 Bft) SO 135 6,8 C 9,9 C 0,0 km/h (0 Bft)
20.09.2020 21:22 9,9 C 7,2 C 16,8 C 80 % 1016,5 hPa 0,0 l/m 0,0 km/h (0 Bft) O-NO 67 6,6 C 9,9 C 0,0 km/h (0 Bft)
20.09.2020 21:20 9,9 C 7,3 C 16,8 C 80 % 1016,5 hPa 0,0 l/m 0,2 km/h (0 Bft) O-NO 67 6,6 C 9,9 C 0,0 km/h (0 Bft)
20.09.2020 21:18 10,1 C 7,4 C 16,8 C 80 % 1016,5 hPa 0,0 l/m 0,2 km/h (0 Bft) S-SO 157 6,8 C 10,1 C 0,0 km/h (0 Bft)
20.09.2020 21:16 10,1 C 7,8 C 16,8 C 80 % 1016,5 hPa 0,0 l/m 0,5 km/h (0 Bft) S-SW 202 6,8 C 10,1 C 0,0 km/h (0 Bft)
20.09.2020 21:14 10,1 C 7,8 C 16,8 C 80 % 1016,5 hPa 0,0 l/m 0,6 km/h (0 Bft) S 180 6,8 C 10,1 C 0,0 km/h (0 Bft)
20.09.2020 21:12 10,1 C 7,6 C 16,8 C 80 % 1016,5 hPa 0,0 l/m 0,6 km/h (0 Bft) W 270 6,8 C 10,1 C 2,1 km/h (1 Bft)
20.09.2020 21:10 10,2 C 7,9 C 16,9 C 80 % 1016,4 hPa 0,0 l/m 1,1 km/h (1 Bft) SW 225 6,9 C 10,2 C 2,7 km/h (1 Bft)
20.09.2020 21:08 10,4 C 8,0 C 16,9 C 80 % 1016,4 hPa 0,0 l/m 1,3 km/h (1 Bft) O 90 7,1 C 10,4 C 2,7 km/h (1 Bft)
20.09.2020 21:06 10,4 C 8,0 C 16,8 C 79 % 1016,4 hPa 0,0 l/m 1,1 km/h (1 Bft) NW 315 6,9 C 10,4 C 2,7 km/h (1 Bft)
20.09.2020 21:04 10,5 C 7,5 C 16,8 C 79 % 1016,4 hPa 0,0 l/m 1,0 km/h (0 Bft) S-SO 157 7,0 C 10,5 C 2,7 km/h (1 Bft)
20.09.2020 21:02 10,5 C 7,8 C 16,8 C 79 % 1016,4 hPa 0,0 l/m 1,0 km/h (0 Bft) W-NW 292 7,0 C 10,5 C 6,6 km/h (2 Bft)
20.09.2020 21:00 10,5 C 7,2 C 16,8 C 79 % 1016,4 hPa 0,0 l/m 0,5 km/h (0 Bft) O-SO 112 7,0 C 10,5 C 6,6 km/h (2 Bft)
20.09.2020 20:58 10,5 C 7,2 C 16,8 C 79 % 1016,4 hPa 0,0 l/m 0,3 km/h (0 Bft) SO 135 7,0 C 10,5 C 2,5 km/h (1 Bft)
20.09.2020 20:56 10,4 C 7,5 C 16,8 C 79 % 1016,4 hPa 0,0 l/m 0,2 km/h (0 Bft) O-NO 67 6,9 C 10,4 C 2,1 km/h (1 Bft)
20.09.2020 20:54 10,6 C 7,9 C 16,8 C 79 % 1016,4 hPa 0,0 l/m 0,0 km/h (0 Bft) NO 45 7,1 C 10,6 C 2,1 km/h (1 Bft)
20.09.2020 20:52 10,6 C 7,6 C 16,8 C 79 % 1016,4 hPa 0,0 l/m 0,0 km/h (0 Bft) SO 135 7,1 C 10,6 C 0,0 km/h (0 Bft)
20.09.2020 20:50 10,5 C 7,9 C 16,9 C 78 % 1016,2 hPa 0,0 l/m 0,3 km/h (0 Bft) SO 135 6,8 C 10,5 C 0,0 km/h (0 Bft)
20.09.2020 20:48 10,7 C 7,8 C 16,9 C 78 % 1016,2 hPa 0,0 l/m 0,5 km/h (0 Bft) S-SO 157 7,0 C 10,7 C 0,0 km/h (0 Bft)
20.09.2020 20:46 10,7 C 7,8 C 16,9 C 78 % 1016,2 hPa 0,0 l/m 0,5 km/h (0 Bft) O-SO 112 7,0 C 10,7 C 0,0 km/h (0 Bft)
20.09.2020 20:44 10,8 C 7,8 C 16,9 C 78 % 1016,2 hPa 0,0 l/m 0,6 km/h (0 Bft) S 180 7,1 C 10,8 C 0,0 km/h (0 Bft)
20.09.2020 20:42 10,7 C 8,0 C 16,9 C 78 % 1016,2 hPa 0,0 l/m 1,0 km/h (0 Bft) O-NO 67 7,0 C 10,7 C 3,3 km/h (1 Bft)
20.09.2020 20:40 10,7 C 7,9 C 16,9 C 78 % 1016,2 hPa 0,0 l/m 1,0 km/h (0 Bft) W-NW 292 7,0 C 10,7 C 3,3 km/h (1 Bft)
20.09.2020 20:38 11,1 C 7,9 C 16,9 C 77 % 1016,2 hPa 0,0 l/m 0,5 km/h (0 Bft) SO 135 7,2 C 11,1 C 0,0 km/h (0 Bft)
20.09.2020 20:36 11,0 C 8,3 C 16,9 C 77 % 1016,2 hPa 0,0 l/m 0,5 km/h (0 Bft) NW 315 7,1 C 11,0 C 0,0 km/h (0 Bft)
20.09.2020 20:34 10,9 C 8,4 C 16,9 C 77 % 1016,2 hPa 0,0 l/m 0,5 km/h (0 Bft) SW 225 7,0 C 10,9 C 0,0 km/h (0 Bft)
20.09.2020 20:32 11,0 C 8,0 C 17,0 C 77 % 1016,2 hPa 0,0 l/m 0,3 km/h (0 Bft) O 90 7,1 C 11,0 C 0,0 km/h (0 Bft)
20.09.2020 20:30 11,3 C 7,6 C 17,0 C 77 % 1016,2 hPa 0,0 l/m 0,3 km/h (0 Bft) N-NO 22 7,4 C 11,3 C 0,0 km/h (0 Bft)
20.09.2020 20:28 11,5 C 7,8 C 17,0 C 77 % 1016,2 hPa 0,0 l/m 0,3 km/h (0 Bft) S 180 7,6 C 11,5 C 0,0 km/h (0 Bft)
20.09.2020 20:26 11,3 C 7,6 C 17,0 C 77 % 1016,2 hPa 0,0 l/m 0,3 km/h (0 Bft) O-NO 67 7,4 C 11,3 C 0,0 km/h (0 Bft)
20.09.2020 20:24 11,4 C 7,6 C 17,0 C 76 % 1016,2 hPa 0,0 l/m 0,5 km/h (0 Bft) O-SO 112 7,3 C 11,4 C 3,5 km/h (1 Bft)
20.09.2020 20:22 11,4 C 7,9 C 17,0 C 76 % 1016,2 hPa 0,0 l/m 0,6 km/h (0 Bft) SO 135 7,3 C 11,4 C 3,5 km/h (1 Bft)
20.09.2020 20:20 11,6 C 7,8 C 17,0 C 76 % 1016,2 hPa 0,0 l/m 0,6 km/h (0 Bft) W 270 7,5 C 11,6 C 0,0 km/h (0 Bft)
20.09.2020 20:18 11,8 C 8,1 C 17,0 C 76 % 1016,2 hPa 0,0 l/m 0,6 km/h (0 Bft) N-NW 337 7,7 C 11,8 C 0,0 km/h (0 Bft)
20.09.2020 20:16 11,5 C 8,6 C 17,0 C 76 % 1016,2 hPa 0,0 l/m 0,8 km/h (0 Bft) W 270 7,4 C 11,5 C 2,3 km/h (1 Bft)
20.09.2020 20:14 11,5 C 8,7 C 17,0 C 76 % 1016,2 hPa 0,0 l/m 0,5 km/h (0 Bft) S-SO 157 7,4 C 11,5 C 2,3 km/h (1 Bft)
20.09.2020 20:12 11,6 C 8,7 C 17,2 C 76 % 1016,2 hPa 0,0 l/m 0,5 km/h (0 Bft) S-SO 157 7,5 C 11,6 C 2,3 km/h (1 Bft)
20.09.2020 20:10 12,1 C 8,0 C 17,2 C 75 % 1015,6 hPa 0,0 l/m 0,3 km/h (0 Bft) W-SW 247 7,8 C 12,1 C 0,0 km/h (0 Bft)
20.09.2020 20:08 11,8 C 7,9 C 17,2 C 75 % 1015,6 hPa 0,0 l/m 0,3 km/h (0 Bft) NW 315 7,5 C 11,8 C 2,1 km/h (1 Bft)
20.09.2020 20:06 11,9 C 7,9 C 17,2 C 75 % 1015,6 hPa 0,0 l/m 0,3 km/h (0 Bft) SO 135 7,6 C 11,9 C 2,1 km/h (1 Bft)
20.09.2020 20:04 12,1 C 7,8 C 17,2 C 75 % 1015,6 hPa 0,0 l/m 0,3 km/h (0 Bft) N 360 7,8 C 12,1 C 2,3 km/h (1 Bft)
20.09.2020 20:02 11,9 C 8,2 C 17,2 C 75 % 1015,6 hPa 0,0 l/m 0,3 km/h (0 Bft) SO 135 7,6 C 11,9 C 2,3 km/h (1 Bft)
20.09.2020 20:00 12,0 C 8,6 C 17,1 C 74 % 1015,6 hPa 0,0 l/m 0,3 km/h (0 Bft) NW 315 7,5 C 12,0 C 0,0 km/h (0 Bft)
20.09.2020 19:58 12,0 C 8,7 C 17,1 C 74 % 1015,6 hPa 0,0 l/m 0,3 km/h (0 Bft) S 180 7,5 C 12,0 C 0,0 km/h (0 Bft)
20.09.2020 19:56 12,2 C 8,3 C 17,1 C 73 % 1015,6 hPa 0,0 l/m 0,3 km/h (0 Bft) SO 135 7,5 C 12,2 C 0,0 km/h (0 Bft)
20.09.2020 19:54 12,1 C 8,1 C 17,1 C 73 % 1015,6 hPa 0,0 l/m 0,5 km/h (0 Bft) O 90 7,4 C 12,1 C 0,0 km/h (0 Bft)
20.09.2020 19:52 12,2 C 8,1 C 17,2 C 73 % 1015,6 hPa 0,0 l/m 0,5 km/h (0 Bft) W 270 7,5 C 12,2 C 0,0 km/h (0 Bft)
20.09.2020 19:50 12,5 C 7,8 C 17,2 C 73 % 1015,7 hPa 0,0 l/m 0,5 km/h (0 Bft) W 270 7,8 C 12,5 C 2,1 km/h (1 Bft)
20.09.2020 19:48 12,1 C 7,9 C 17,2 C 73 % 1015,7 hPa 0,0 l/m 0,5 km/h (0 Bft) SO 135 7,4 C 12,1 C 3,1 km/h (1 Bft)
20.09.2020 19:46 12,2 C 8,1 C 17,2 C 73 % 1015,7 hPa 0,0 l/m 0,3 km/h (0 Bft) O-SO 112 7,5 C 12,2 C 3,1 km/h (1 Bft)
20.09.2020 19:44 12,4 C 7,9 C 17,2 C 73 % 1015,7 hPa 0,0 l/m 0,0 km/h (0 Bft) O 90 7,7 C 12,4 C 0,0 km/h (0 Bft)
20.09.2020 19:42 12,5 C 8,1 C 17,2 C 73 % 1015,7 hPa 0,0 l/m 0,0 km/h (0 Bft) O-NO 67 7,8 C 12,5 C 0,0 km/h (0 Bft)
20.09.2020 19:40 12,9 C 8,2 C 17,2 C 73 % 1015,7 hPa 0,0 l/m 0,0 km/h (0 Bft) SO 135 8,2 C 12,9 C 0,0 km/h (0 Bft)
20.09.2020 19:38 12,9 C 8,2 C 17,2 C 73 % 1015,7 hPa 0,0 l/m 0,0 km/h (0 Bft) O-NO 67 8,2 C 12,9 C 0,0 km/h (0 Bft)
20.09.2020 19:36 12,8 C 8,3 C 17,2 C 72 % 1015,7 hPa 0,0 l/m 0,0 km/h (0 Bft) O-SO 112 7,9 C 12,8 C 0,0 km/h (0 Bft)
20.09.2020 19:34 12,9 C 8,5 C 17,2 C 72 % 1015,7 hPa 0,0 l/m 0,0 km/h (0 Bft) S-SO 157 8,0 C 12,9 C 0,0 km/h (0 Bft)
20.09.2020 19:32 12,9 C 8,7 C 17,3 C 72 % 1015,7 hPa 0,0 l/m 0,0 km/h (0 Bft) O-SO 112 8,0 C 12,9 C 0,0 km/h (0 Bft)
20.09.2020 19:30 13,0 C 8,7 C 17,3 C 71 % 1015,0 hPa 0,0 l/m 0,0 km/h (0 Bft) O-NO 67 7,9 C 13,0 C 0,0 km/h (0 Bft)
20.09.2020 19:28 13,3 C 8,5 C 17,3 C 71 % 1015,0 hPa 0,0 l/m 0,0 km/h (0 Bft) O-SO 112 8,2 C 13,3 C 0,0 km/h (0 Bft)
20.09.2020 19:26 13,5 C 8,6 C 17,3 C 71 % 1015,0 hPa 0,0 l/m 0,0 km/h (0 Bft) O-NO 67 8,3 C 13,5 C 0,0 km/h (0 Bft)
20.09.2020 19:24 13,4 C 8,6 C 17,3 C 71 % 1015,0 hPa 0,0 l/m 0,3 km/h (0 Bft) O-NO 67 8,3 C 13,4 C 0,0 km/h (0 Bft)
20.09.2020 19:22 13,4 C 8,8 C 17,3 C 70 % 1015,0 hPa 0,0 l/m 0,3 km/h (0 Bft) S-SO 157 8,0 C 13,4 C 0,0 km/h (0 Bft)
20.09.2020 19:20 13,7 C 8,8 C 17,3 C 70 % 1015,0 hPa 0,0 l/m 0,5 km/h (0 Bft) N-NO 22 8,3 C 13,7 C 0,0 km/h (0 Bft)
20.09.2020 19:18 13,5 C 8,9 C 17,3 C 70 % 1015,0 hPa 0,0 l/m 1,0 km/h (0 Bft) N 360 8,1 C 13,5 C 0,0 km/h (0 Bft)
20.09.2020 19:16 13,6 C 9,3 C 17,3 C 70 % 1015,0 hPa 0,0 l/m 1,1 km/h (1 Bft) O-SO 112 8,2 C 13,6 C 1,9 km/h (1 Bft)
20.09.2020 19:14 13,8 C 9,5 C 17,3 C 70 % 1015,0 hPa 0,0 l/m 1,3 km/h (1 Bft) O-SO 112 8,4 C 13,8 C 1,9 km/h (1 Bft)
20.09.2020 19:12 13,8 C 9,6 C 17,3 C 69 % 1015,0 hPa 0,0 l/m 1,1 km/h (1 Bft) SO 135 8,2 C 13,8 C 3,3 km/h (1 Bft)
20.09.2020 19:10 13,9 C 9,8 C 17,4 C 69 % 1015,7 hPa 0,0 l/m 1,0 km/h (0 Bft) O 90 8,3 C 13,9 C 3,3 km/h (1 Bft)
20.09.2020 19:08 14,1 C 9,9 C 17,4 C 69 % 1015,7 hPa 0,0 l/m 0,8 km/h (0 Bft) O-NO 67 8,5 C 14,1 C 3,1 km/h (1 Bft)
20.09.2020 19:06 14,1 C 9,6 C 17,4 C 68 % 1015,7 hPa 0,0 l/m 0,5 km/h (0 Bft) O-SO 112 8,3 C 14,1 C 2,7 km/h (1 Bft)
20.09.2020 19:04 14,2 C 10,0 C 17,4 C 68 % 1015,7 hPa 0,0 l/m 0,2 km/h (0 Bft) O 90 8,4 C 14,2 C 2,7 km/h (1 Bft)
20.09.2020 19:02 14,5 C 9,9 C 17,4 C 68 % 1015,7 hPa 0,0 l/m 0,0 km/h (0 Bft) N-NO 22 8,7 C 14,5 C 0,0 km/h (0 Bft)
20.09.2020 19:00 14,7 C 9,9 C 17,4 C 68 % 1015,7 hPa 0,0 l/m 0,0 km/h (0 Bft) NO 45 8,9 C 14,7 C 0,0 km/h (0 Bft)
20.09.2020 18:58 14,6 C 10,1 C 17,4 C 68 % 1015,7 hPa 0,0 l/m 0,0 km/h (0 Bft) NO 45 8,8 C 14,6 C 0,0 km/h (0 Bft)
20.09.2020 18:56 14,6 C 10,3 C 17,4 C 68 % 1015,7 hPa 0,0 l/m 0,0 km/h (0 Bft) O-NO 67 8,8 C 14,6 C 0,0 km/h (0 Bft)
20.09.2020 18:54 14,8 C 10,6 C 17,4 C 67 % 1015,7 hPa 0,0 l/m 0,0 km/h (0 Bft) O-SO 112 8,7 C 14,8 C 0,0 km/h (0 Bft)
20.09.2020 18:52 15,0 C 10,6 C 17,3 C 67 % 1015,7 hPa 0,0 l/m 0,0 km/h (0 Bft) S-SO 157 8,9 C 15,0 C 0,0 km/h (0 Bft)
20.09.2020 18:50 15,0 C 10,7 C 17,3 C 67 % 1015,0 hPa 0,0 l/m 0,0 km/h (0 Bft) S-SO 157 8,9 C 15,0 C 0,0 km/h (0 Bft)
20.09.2020 18:48 15,0 C 10,9 C 17,3 C 66 % 1015,0 hPa 0,0 l/m 0,0 km/h (0 Bft) S-SO 157 8,7 C 15,0 C 0,0 km/h (0 Bft)
20.09.2020 18:46 15,1 C 11,1 C 17,4 C 66 % 1015,0 hPa 0,0 l/m 0,2 km/h (0 Bft) S-SO 157 8,8 C 15,1 C 0,0 km/h (0 Bft)
20.09.2020 18:44 15,2 C 11,3 C 17,4 C 65 % 1015,0 hPa 0,0 l/m 0,2 km/h (0 Bft) S-SO 157 8,7 C 15,2 C 0,0 km/h (0 Bft)
20.09.2020 18:42 15,4 C 11,5 C 17,4 C 65 % 1015,0 hPa 0,0 l/m 0,3 km/h (0 Bft) S-SO 157 8,9 C 15,4 C 0,0 km/h (0 Bft)
20.09.2020 18:40 15,6 C 11,7 C 17,4 C 65 % 1015,0 hPa 0,0 l/m 0,8 km/h (0 Bft) S-SO 157 9,0 C 15,6 C 0,0 km/h (0 Bft)
20.09.2020 18:38 15,6 C 11,9 C 17,4 C 64 % 1015,0 hPa 0,0 l/m 1,0 km/h (0 Bft) S-SO 157 8,8 C 15,6 C 0,0 km/h (0 Bft)
20.09.2020 18:36 15,8 C 12,2 C 17,4 C 63 % 1015,0 hPa 0,0 l/m 1,4 km/h (1 Bft) NO 45 8,8 C 15,8 C 0,0 km/h (0 Bft)
20.09.2020 18:34 16,0 C 12,5 C 17,4 C 63 % 1015,0 hPa 0,0 l/m 2,1 km/h (1 Bft) O-NO 67 9,0 C 16,0 C 2,1 km/h (1 Bft)
20.09.2020 18:32 16,2 C 12,6 C 17,4 C 62 % 1015,0 hPa 0,0 l/m 3,2 km/h (1 Bft) SO 135 8,9 C 16,2 C 4,1 km/h (1 Bft)
20.09.2020 18:30 16,4 C 12,8 C 17,4 C 62 % 1014,6 hPa 0,0 l/m 3,7 km/h (1 Bft) W 270 9,1 C 16,4 C 4,1 km/h (1 Bft)
20.09.2020 18:28 16,5 C 13,0 C 17,4 C 62 % 1014,6 hPa 0,0 l/m 4,2 km/h (1 Bft) O-NO 67 9,2 C 16,5 C 5,8 km/h (2 Bft)
20.09.2020 18:26 16,8 C 13,2 C 17,4 C 61 % 1014,6 hPa 0,0 l/m 4,5 km/h (1 Bft) O-NO 67 9,2 C 16,8 C 5,8 km/h (2 Bft)
20.09.2020 18:24 17,1 C 13,3 C 17,4 C 61 % 1014,6 hPa 0,0 l/m 4,3 km/h (1 Bft) O-NO 67 9,5 C 17,1 C 9,8 km/h (2 Bft)
20.09.2020 18:22 17,2 C 13,1 C 17,4 C 61 % 1014,6 hPa 0,0 l/m 3,5 km/h (1 Bft) O-NO 67 9,6 C 17,2 C 9,8 km/h (2 Bft)
20.09.2020 18:20 16,8 C 13,0 C 17,4 C 62 % 1014,6 hPa 0,0 l/m 3,2 km/h (1 Bft) O-NO 67 9,5 C 16,8 C 9,1 km/h (2 Bft)
20.09.2020 18:18 16,6 C 13,1 C 17,4 C 62 % 1014,6 hPa 0,0 l/m 2,9 km/h (1 Bft) O 90 9,3 C 16,6 C 9,1 km/h (2 Bft)
20.09.2020 18:16 16,8 C 13,0 C 17,4 C 62 % 1014,6 hPa 0,0 l/m 2,9 km/h (1 Bft) O-NO 67 9,5 C 16,8 C 4,6 km/h (1 Bft)
20.09.2020 18:14 16,9 C 13,1 C 17,4 C 61 % 1014,6 hPa 0,0 l/m 2,9 km/h (1 Bft) O-NO 67 9,3 C 16,9 C 4,6 km/h (1 Bft)
20.09.2020 18:12 17,4 C 13,3 C 17,4 C 61 % 1014,6 hPa 0,0 l/m 3,2 km/h (1 Bft) O-NO 67 9,8 C 17,4 C 7,0 km/h (2 Bft)
20.09.2020 18:10 17,0 C 13,5 C 17,4 C 61 % 1015,4 hPa 0,0 l/m 3,5 km/h (1 Bft) O-NO 67 9,4 C 17,0 C 7,0 km/h (2 Bft)
20.09.2020 18:08 17,0 C 13,6 C 17,4 C 61 % 1015,4 hPa 0,0 l/m 3,5 km/h (1 Bft) O-SO 112 9,4 C 17,0 C 5,2 km/h (1 Bft)
20.09.2020 18:06 17,0 C 13,6 C 17,4 C 61 % 1015,4 hPa 0,0 l/m 3,7 km/h (1 Bft) O 90 9,4 C 17,0 C 5,2 km/h (1 Bft)
20.09.2020 18:04 17,0 C 13,7 C 17,5 C 61 % 1015,4 hPa 0,0 l/m 4,0 km/h (1 Bft) O-NO 67 9,4 C 17,0 C 5,2 km/h (1 Bft)
20.09.2020 18:02 17,1 C 13,8 C 17,5 C 60 % 1015,4 hPa 0,0 l/m 4,2 km/h (1 Bft) O-SO 112 9,3 C 17,1 C 4,8 km/h (1 Bft)
20.09.2020 18:00 17,2 C 14,0 C 17,5 C 60 % 1015,4 hPa 0,0 l/m 4,2 km/h (1 Bft) O-NO 67 9,4 C 17,2 C 6,2 km/h (2 Bft)
20.09.2020 17:58 17,3 C 14,1 C 17,5 C 60 % 1015,4 hPa 0,0 l/m 4,7 km/h (1 Bft) O-NO 67 9,5 C 17,3 C 6,2 km/h (2 Bft)
20.09.2020 17:56 17,7 C 14,2 C 17,5 C 59 % 1015,4 hPa 0,0 l/m 4,8 km/h (1 Bft) O-NO 67 9,6 C 17,7 C 7,5 km/h (2 Bft)
20.09.2020 17:54 17,6 C 14,2 C 17,5 C 59 % 1015,4 hPa 0,0 l/m 4,7 km/h (1 Bft) O-NO 67 9,5 C 17,6 C 7,5 km/h (2 Bft)
20.09.2020 17:52 17,7 C 14,4 C 17,5 C 58 % 1015,4 hPa 0,0 l/m 4,7 km/h (1 Bft) O-NO 67 9,3 C 17,7 C 7,0 km/h (2 Bft)
20.09.2020 17:50 18,1 C 14,5 C 17,5 C 58 % 1015,3 hPa 0,0 l/m 4,8 km/h (1 Bft) O-NO 67 9,7 C 18,1 C 6,2 km/h (2 Bft)
20.09.2020 17:48 18,4 C 14,7 C 17,5 C 57 % 1015,3 hPa 0,0 l/m 5,1 km/h (1 Bft) O-NO 67 9,7 C 18,4 C 9,3 km/h (2 Bft)
20.09.2020 17:46 18,7 C 14,7 C 17,5 C 56 % 1015,3 hPa 0,0 l/m 5,0 km/h (1 Bft) O-NO 67 9,7 C 18,7 C 9,3 km/h (2 Bft)
20.09.2020 17:44 19,0 C 14,9 C 17,5 C 56 % 1015,3 hPa 0,0 l/m 4,3 km/h (1 Bft) O-NO 67 10,0 C 19,0 C 6,2 km/h (2 Bft)
20.09.2020 17:42 19,0 C 14,9 C 17,5 C 56 % 1015,3 hPa 0,0 l/m 4,0 km/h (1 Bft) NO 45 10,0 C 19,0 C 6,4 km/h (2 Bft)
20.09.2020 17:40 19,0 C 15,0 C 17,5 C 56 % 1015,3 hPa 0,0 l/m 3,9 km/h (1 Bft) O-NO 67 10,0 C 19,0 C 8,7 km/h (2 Bft)
20.09.2020 17:38 19,1 C 15,0 C 17,5 C 56 % 1015,3 hPa 0,0 l/m 3,4 km/h (1 Bft) O-NO 67 10,1 C 19,1 C 8,7 km/h (2 Bft)
20.09.2020 17:36 19,5 C 15,1 C 17,5 C 56 % 1015,3 hPa 0,0 l/m 2,7 km/h (1 Bft) O-NO 67 10,5 C 19,5 C 2,5 km/h (1 Bft)
20.09.2020 17:34 19,6 C 15,4 C 17,5 C 56 % 1015,3 hPa 0,0 l/m 2,6 km/h (1 Bft) O-NO 67 10,6 C 19,6 C 4,1 km/h (1 Bft)
20.09.2020 17:32 19,7 C 15,7 C 17,5 C 55 % 1015,3 hPa 0,0 l/m 2,6 km/h (1 Bft) O-NO 67 10,4 C 19,7 C 5,4 km/h (1 Bft)
20.09.2020 17:30 19,8 C 15,6 C 17,4 C 55 % 1015,1 hPa 0,0 l/m 2,1 km/h (1 Bft) O 90 10,5 C 19,8 C 5,4 km/h (1 Bft)
20.09.2020 17:28 20,1 C 15,7 C 17,4 C 55 % 1015,1 hPa 0,0 l/m 1,6 km/h (1 Bft) SO 135 10,8 C 20,1 C 4,1 km/h (1 Bft)
20.09.2020 17:26 20,2 C 15,7 C 17,4 C 55 % 1015,1 hPa 0,0 l/m 1,8 km/h (1 Bft) O-NO 67 10,9 C 20,2 C 4,1 km/h (1 Bft)
20.09.2020 17:24 20,3 C 15,9 C 17,4 C 55 % 1015,1 hPa 0,0 l/m 1,4 km/h (1 Bft) O-SO 112 11,0 C 20,3 C 2,9 km/h (1 Bft)
20.09.2020 17:22 20,4 C 16,1 C 17,4 C 55 % 1015,1 hPa 0,0 l/m 1,1 km/h (1 Bft) O 90 11,1 C 20,4 C 2,9 km/h (1 Bft)
20.09.2020 17:20 20,7 C 16,1 C 17,4 C 53 % 1015,1 hPa 0,0 l/m 1,1 km/h (1 Bft) S-SW 202 10,8 C 20,7 C 2,7 km/h (1 Bft)
20.09.2020 17:18 20,5 C 16,1 C 17,4 C 53 % 1015,1 hPa 0,0 l/m 1,6 km/h (1 Bft) O 90 10,6 C 20,5 C 4,2 km/h (1 Bft)
20.09.2020 17:16 20,8 C 16,2 C 17,4 C 53 % 1015,1 hPa 0,0 l/m 2,1 km/h (1 Bft) O 90 10,9 C 20,8 C 4,2 km/h (1 Bft)
20.09.2020 17:14 21,4 C 16,4 C 17,3 C 53 % 1015,1 hPa 0,0 l/m 2,4 km/h (1 Bft) O-NO 67 11,4 C 21,4 C 2,3 km/h (1 Bft)
20.09.2020 17:12 21,4 C 16,6 C 17,3 C 52 % 1015,1 hPa 0,0 l/m 2,6 km/h (1 Bft) W 270 11,1 C 21,4 C 1,9 km/h (1 Bft)
20.09.2020 17:10 21,4 C 17,1 C 17,3 C 52 % 1015,1 hPa 0,0 l/m 2,6 km/h (1 Bft) S-SW 202 11,1 C 21,4 C 3,7 km/h (1 Bft)
20.09.2020 17:08 21,3 C 16,9 C 17,3 C 52 % 1015,1 hPa 0,0 l/m 3,1 km/h (1 Bft) W 270 11,0 C 21,3 C 7,3 km/h (2 Bft)
20.09.2020 17:06 21,3 C 16,6 C 17,3 C 51 % 1015,1 hPa 0,0 l/m 3,9 km/h (1 Bft) W 270 10,7 C 21,3 C 7,3 km/h (2 Bft)
20.09.2020 17:04 21,4 C 16,7 C 17,3 C 51 % 1015,1 hPa 0,0 l/m 4,5 km/h (1 Bft) N 360 10,8 C 21,4 C 4,4 km/h (1 Bft)
20.09.2020 17:02 21,5 C 17,0 C 17,3 C 51 % 1015,1 hPa 0,0 l/m 5,3 km/h (1 Bft) N-NW 337 10,9 C 21,5 C 3,7 km/h (1 Bft)
20.09.2020 17:00 21,2 C 17,3 C 17,2 C 51 % 1015,1 hPa 0,0 l/m 6,1 km/h (2 Bft) W 270 10,7 C 21,2 C 7,9 km/h (2 Bft)
20.09.2020 16:58 21,1 C 17,5 C 17,2 C 51 % 1015,1 hPa 0,0 l/m 6,3 km/h (2 Bft) O-NO 67 10,6 C 21,1 C 11,8 km/h (2 Bft)
20.09.2020 16:56 21,2 C 17,7 C 17,2 C 52 % 1015,1 hPa 0,0 l/m 6,3 km/h (2 Bft) O-NO 67 10,9 C 21,2 C 12,9 km/h (3 Bft)
20.09.2020 16:54 21,3 C 17,9 C 17,2 C 52 % 1015,1 hPa 0,0 l/m 4,7 km/h (1 Bft) O-NO 67 11,0 C 21,3 C 12,9 km/h (3 Bft)
20.09.2020 16:52 21,5 C 18,0 C 17,2 C 52 % 1015,1 hPa 0,0 l/m 3,4 km/h (1 Bft) O 90 11,2 C 21,5 C 10,8 km/h (2 Bft)
20.09.2020 16:50 21,7 C 18,0 C 17,2 C 53 % 1015,1 hPa 0,0 l/m 3,2 km/h (1 Bft) O-NO 67 11,7 C 21,7 C 10,8 km/h (2 Bft)
20.09.2020 16:48 21,9 C 18,3 C 17,2 C 53 % 1015,1 hPa 0,0 l/m 2,6 km/h (1 Bft) O-SO 112 11,9 C 21,9 C 12,2 km/h (2 Bft)
20.09.2020 16:46 22,3 C 18,4 C 17,2 C 53 % 1015,1 hPa 0,0 l/m 2,1 km/h (1 Bft) N-NO 22 12,2 C 22,3 C 12,2 km/h (2 Bft)
20.09.2020 16:44 22,2 C 18,5 C 17,1 C 53 % 1015,1 hPa 0,0 l/m 1,4 km/h (1 Bft) SO 135 12,2 C 22,2 C 5,0 km/h (1 Bft)
20.09.2020 16:42 22,0 C 18,7 C 17,1 C 53 % 1015,1 hPa 0,0 l/m 1,4 km/h (1 Bft) O-SO 112 12,0 C 22,0 C 5,6 km/h (1 Bft)
20.09.2020 16:40 22,0 C 18,8 C 17,1 C 53 % 1015,1 hPa 0,0 l/m 0,8 km/h (0 Bft) O 90 12,0 C 22,0 C 5,6 km/h (1 Bft)
20.09.2020 16:38 22,1 C 18,9 C 17,1 C 53 % 1015,1 hPa 0,0 l/m 1,0 km/h (0 Bft) NO 45 12,1 C 22,1 C 3,9 km/h (1 Bft)
20.09.2020 16:36 22,2 C 18,6 C 17,1 C 53 % 1015,1 hPa 0,0 l/m 1,3 km/h (1 Bft) S-SW 202 12,2 C 22,2 C 0,0 km/h (0 Bft)
20.09.2020 16:34 22,2 C 18,6 C 17,1 C 53 % 1015,1 hPa 0,0 l/m 1,6 km/h (1 Bft) N-NO 22 12,2 C 22,2 C 0,0 km/h (0 Bft)
20.09.2020 16:32 22,1 C 18,7 C 17,1 C 53 % 1015,1 hPa 0,0 l/m 2,6 km/h (1 Bft) O 90 12,1 C 22,1 C 0,0 km/h (0 Bft)
20.09.2020 16:30 21,8 C 18,8 C 17,1 C 52 % 1015,2 hPa 0,0 l/m 3,1 km/h (1 Bft) SO 135 11,5 C 21,8 C 8,1 km/h (2 Bft)
20.09.2020 16:28 21,8 C 19,1 C 17,0 C 52 % 1015,2 hPa 0,0 l/m 3,5 km/h (1 Bft) O-NO 67 11,5 C 21,8 C 8,1 km/h (2 Bft)
20.09.2020 16:26 21,9 C 19,0 C 17,0 C 52 % 1015,2 hPa 0,0 l/m 3,4 km/h (1 Bft) O-NO 67 11,6 C 21,9 C 3,7 km/h (1 Bft)
20.09.2020 16:24 21,7 C 19,0 C 17,0 C 53 % 1015,2 hPa 0,0 l/m 4,0 km/h (1 Bft) N-NO 22 11,7 C 21,7 C 7,5 km/h (2 Bft)
20.09.2020 16:22 21,7 C 19,0 C 17,0 C 53 % 1015,2 hPa 0,0 l/m 4,2 km/h (1 Bft) SO 135 11,7 C 21,7 C 7,5 km/h (2 Bft)
20.09.2020 16:20 21,8 C 18,9 C 17,0 C 53 % 1015,2 hPa 0,0 l/m 3,4 km/h (1 Bft) O 90 11,8 C 21,8 C 5,0 km/h (1 Bft)
20.09.2020 16:18 22,0 C 19,3 C 17,0 C 53 % 1015,2 hPa 0,0 l/m 3,4 km/h (1 Bft) O-SO 112 12,0 C 22,0 C 6,4 km/h (2 Bft)
20.09.2020 16:16 21,9 C 19,7 C 17,0 C 52 % 1015,2 hPa 0,0 l/m 2,9 km/h (1 Bft) O-SO 112 11,6 C 21,9 C 7,1 km/h (2 Bft)
20.09.2020 16:14 22,0 C 19,7 C 17,0 C 52 % 1015,2 hPa 0,0 l/m 2,3 km/h (1 Bft) NO 45 11,7 C 22,0 C 7,9 km/h (2 Bft)
20.09.2020 16:12 22,2 C 19,8 C 17,0 C 53 % 1015,2 hPa 0,0 l/m 2,1 km/h (1 Bft) NO 45 12,2 C 22,2 C 7,9 km/h (2 Bft)
20.09.2020 16:10 22,5 C 20,0 C 17,0 C 53 % 1015,0 hPa 0,0 l/m 1,6 km/h (1 Bft) O 90 12,4 C 22,5 C 6,4 km/h (2 Bft)
20.09.2020 16:08 22,7 C 20,4 C 17,0 C 53 % 1015,0 hPa 0,0 l/m 1,6 km/h (1 Bft) N-NO 22 12,6 C 22,7 C 6,4 km/h (2 Bft)
20.09.2020 16:06 22,7 C 20,5 C 17,0 C 53 % 1015,0 hPa 0,0 l/m 1,3 km/h (1 Bft) N-NO 22 12,6 C 22,7 C 4,6 km/h (1 Bft)
20.09.2020 16:04 22,6 C 20,9 C 17,0 C 53 % 1015,0 hPa 0,0 l/m 1,1 km/h (1 Bft) NO 45 12,5 C 22,6 C 4,4 km/h (1 Bft)
20.09.2020 16:02 22,6 C 21,4 C 17,0 C 53 % 1015,0 hPa 0,0 l/m 1,0 km/h (0 Bft) SW 225 12,5 C 22,6 C 4,1 km/h (1 Bft)
20.09.2020 16:00 22,7 C 21,5 C 17,0 C 53 % 1015,0 hPa 0,0 l/m 1,1 km/h (1 Bft) W 270 12,6 C 22,7 C 0,0 km/h (0 Bft)
20.09.2020 15:58 22,9 C 22,1 C 17,0 C 53 % 1015,0 hPa 0,0 l/m 2,1 km/h (1 Bft) W 270 12,8 C 22,9 C 2,1 km/h (1 Bft)
20.09.2020 15:56 22,9 C 22,9 C 16,9 C 53 % 1015,0 hPa 0,0 l/m 2,4 km/h (1 Bft) O 90 12,8 C 22,9 C 2,1 km/h (1 Bft)
20.09.2020 15:54 22,9 C 23,8 C 16,9 C 53 % 1015,0 hPa 0,0 l/m 2,9 km/h (1 Bft) N-NW 337 12,8 C 22,9 C 4,6 km/h (1 Bft)
20.09.2020 15:52 22,9 C 24,5 C 16,9 C 52 % 1015,0 hPa 0,0 l/m 3,5 km/h (1 Bft) S-SW 202 12,5 C 22,9 C 4,6 km/h (1 Bft)
20.09.2020 15:50 23,0 C 25,3 C 16,9 C 51 % 1015,1 hPa 0,0 l/m 3,2 km/h (1 Bft) SW 225 12,3 C 23,0 C 7,0 km/h (2 Bft)
20.09.2020 15:48 23,1 C 27,0 C 16,9 C 51 % 1015,1 hPa 0,0 l/m 3,1 km/h (1 Bft) SO 135 12,4 C 23,1 C 7,0 km/h (2 Bft)
20.09.2020 15:46 23,1 C 27,7 C 16,9 C 51 % 1015,1 hPa 0,0 l/m 3,1 km/h (1 Bft) SO 135 12,4 C 23,1 C 5,8 km/h (2 Bft)
20.09.2020 15:44 22,9 C 27,9 C 16,9 C 52 % 1015,1 hPa 0,0 l/m 2,9 km/h (1 Bft) SW 225 12,5 C 22,9 C 5,8 km/h (2 Bft)
20.09.2020 15:42 22,9 C 27,9 C 16,9 C 52 % 1015,1 hPa 0,0 l/m 2,3 km/h (1 Bft) W 270 12,5 C 22,9 C 2,7 km/h (1 Bft)
20.09.2020 15:40 22,9 C 27,4 C 16,9 C 52 % 1015,1 hPa 0,0 l/m 2,6 km/h (1 Bft) W 270 12,5 C 22,9 C 6,2 km/h (2 Bft)
20.09.2020 15:38 22,9 C 27,4 C 16,9 C 52 % 1015,1 hPa 0,0 l/m 3,2 km/h (1 Bft) S-SO 157 12,5 C 22,9 C 6,2 km/h (2 Bft)
20.09.2020 15:36 22,9 C 28,3 C 16,9 C 52 % 1015,1 hPa 0,0 l/m 3,7 km/h (1 Bft) SW 225 12,5 C 22,9 C 4,4 km/h (1 Bft)
20.09.2020 15:34 22,9 C 28,0 C 16,9 C 52 % 1015,1 hPa 0,0 l/m 4,5 km/h (1 Bft) NO 45 12,5 C 22,9 C 2,1 km/h (1 Bft)
20.09.2020 15:32 22,7 C 27,7 C 16,8 C 52 % 1015,1 hPa 0,0 l/m 5,8 km/h (2 Bft) S-SO 157 12,3 C 22,7 C 6,6 km/h (2 Bft)
20.09.2020 15:30 22,5 C 27,0 C 16,8 C 51 % 1014,9 hPa 0,0 l/m 6,6 km/h (2 Bft) S-SW 202 11,8 C 22,4 C 9,7 km/h (2 Bft)
20.09.2020 15:28 22,5 C 27,7 C 16,8 C 51 % 1014,9 hPa 0,0 l/m 6,4 km/h (2 Bft) S 180 11,8 C 22,5 C 9,7 km/h (2 Bft)
20.09.2020 15:26 22,5 C 28,0 C 16,8 C 52 % 1014,9 hPa 0,0 l/m 6,4 km/h (2 Bft) S-SW 202 12,1 C 22,5 C 8,1 km/h (2 Bft)
20.09.2020 15:24 22,5 C 27,6 C 16,8 C 52 % 1014,9 hPa 0,0 l/m 5,8 km/h (2 Bft) S-SW 202 12,1 C 22,5 C 10,4 km/h (2 Bft)
20.09.2020 15:22 22,6 C 27,8 C 16,8 C 52 % 1014,9 hPa 0,0 l/m 6,1 km/h (2 Bft) S 180 12,2 C 22,6 C 10,4 km/h (2 Bft)
20.09.2020 15:20 22,7 C 28,8 C 16,8 C 53 % 1014,9 hPa 0,0 l/m 5,5 km/h (1 Bft) S 180 12,6 C 22,7 C 7,0 km/h (2 Bft)
20.09.2020 15:18 22,7 C 28,4 C 16,8 C 53 % 1014,9 hPa 0,0 l/m 5,3 km/h (1 Bft) O-NO 67 12,6 C 22,7 C 12,4 km/h (3 Bft)
20.09.2020 15:16 22,6 C 27,8 C 16,8 C 52 % 1014,9 hPa 0,0 l/m 5,5 km/h (1 Bft) S-SO 157 12,2 C 22,6 C 12,4 km/h (3 Bft)
20.09.2020 15:14 22,6 C 28,0 C 16,8 C 53 % 1014,9 hPa 0,0 l/m 5,3 km/h (1 Bft) S 180 12,5 C 22,6 C 10,0 km/h (2 Bft)
20.09.2020 15:12 22,7 C 28,9 C 16,8 C 53 % 1014,9 hPa 0,0 l/m 5,3 km/h (1 Bft) SW 225 12,6 C 22,7 C 10,0 km/h (2 Bft)
20.09.2020 15:10 22,6 C 29,5 C 16,8 C 53 % 1015,1 hPa 0,0 l/m 5,5 km/h (1 Bft) S-SO 157 12,5 C 22,6 C 7,3 km/h (2 Bft)
20.09.2020 15:08 22,6 C 28,9 C 16,8 C 53 % 1015,1 hPa 0,0 l/m 5,6 km/h (1 Bft) S 180 12,5 C 22,6 C 7,7 km/h (2 Bft)
20.09.2020 15:06 22,5 C 29,7 C 16,8 C 52 % 1015,1 hPa 0,0 l/m 5,6 km/h (1 Bft) SW 225 12,1 C 22,5 C 7,7 km/h (2 Bft)
20.09.2020 15:04 22,5 C 28,7 C 16,8 C 52 % 1015,1 hPa 0,0 l/m 5,6 km/h (1 Bft) SW 225 12,1 C 22,5 C 8,9 km/h (2 Bft)
20.09.2020 15:02 22,5 C 28,0 C 16,7 C 52 % 1015,1 hPa 0,0 l/m 6,1 km/h (2 Bft) S-SW 202 12,1 C 22,5 C 12,9 km/h (3 Bft)
20.09.2020 15:00 22,5 C 29,0 C 16,7 C 52 % 1015,1 hPa 0,0 l/m 6,4 km/h (2 Bft) SO 135 12,1 C 22,5 C 12,9 km/h (3 Bft)
20.09.2020 14:58 22,5 C 28,3 C 16,7 C 52 % 1015,1 hPa 0,0 l/m 6,3 km/h (2 Bft) W-NW 292 12,1 C 22,5 C 9,3 km/h (2 Bft)
20.09.2020 14:56 22,5 C 28,6 C 16,7 C 52 % 1015,1 hPa 0,0 l/m 6,6 km/h (2 Bft) O 90 12,1 C 22,4 C 9,3 km/h (2 Bft)
20.09.2020 14:54 22,4 C 28,3 C 16,7 C 52 % 1015,1 hPa 0,0 l/m 5,8 km/h (2 Bft) S-SW 202 12,1 C 22,4 C 9,5 km/h (2 Bft)
20.09.2020 14:52 22,4 C 28,4 C 16,7 C 52 % 1015,1 hPa 0,0 l/m 5,6 km/h (1 Bft) S-SW 202 12,1 C 22,4 C 12,2 km/h (2 Bft)
20.09.2020 14:50 22,3 C 28,0 C 16,7 C 52 % 1015,1 hPa 0,0 l/m 5,8 km/h (2 Bft) S-SW 202 12,0 C 22,3 C 12,2 km/h (2 Bft)
20.09.2020 14:48 22,4 C 29,0 C 16,7 C 52 % 1015,1 hPa 0,0 l/m 5,1 km/h (1 Bft) S 180 12,1 C 22,4 C 11,4 km/h (2 Bft)
20.09.2020 14:46 22,4 C 30,0 C 16,7 C 52 % 1015,1 hPa 0,0 l/m 4,8 km/h (1 Bft) S-SO 157 12,1 C 22,4 C 6,4 km/h (2 Bft)
20.09.2020 14:44 22,3 C 29,1 C 16,7 C 52 % 1015,1 hPa 0,0 l/m 4,8 km/h (1 Bft) N-NW 337 12,0 C 22,3 C 12,2 km/h (2 Bft)
20.09.2020 14:42 22,3 C 28,6 C 16,7 C 52 % 1015,1 hPa 0,0 l/m 6,1 km/h (2 Bft) S-SW 202 12,0 C 22,3 C 13,5 km/h (3 Bft)
20.09.2020 14:40 22,4 C 29,7 C 16,7 C 52 % 1015,1 hPa 0,0 l/m 5,6 km/h (1 Bft) S-SO 157 12,1 C 22,4 C 13,5 km/h (3 Bft)
20.09.2020 14:38 22,4 C 30,4 C 16,7 C 52 % 1015,1 hPa 0,0 l/m 6,1 km/h (2 Bft) S-SW 202 12,1 C 22,4 C 10,0 km/h (2 Bft)
20.09.2020 14:36 22,3 C 29,5 C 16,7 C 52 % 1015,1 hPa 0,0 l/m 5,8 km/h (2 Bft) W-SW 247 12,0 C 22,3 C 10,0 km/h (2 Bft)
20.09.2020 14:34 22,3 C 28,7 C 16,7 C 52 % 1015,1 hPa 0,0 l/m 5,5 km/h (1 Bft) W 270 12,0 C 22,3 C 9,7 km/h (2 Bft)
20.09.2020 14:32 22,3 C 29,7 C 16,6 C 52 % 1015,1 hPa 0,0 l/m 5,0 km/h (1 Bft) S-SW 202 12,0 C 22,3 C 9,7 km/h (2 Bft)
20.09.2020 14:30 22,3 C 29,4 C 16,6 C 52 % 1015,3 hPa 0,0 l/m 4,7 km/h (1 Bft) SW 225 12,0 C 22,3 C 16,4 km/h (3 Bft)
20.09.2020 14:28 22,2 C 29,6 C 16,6 C 52 % 1015,3 hPa 0,0 l/m 4,7 km/h (1 Bft) S-SW 202 11,9 C 22,2 C 16,4 km/h (3 Bft)
20.09.2020 14:26 22,3 C 30,6 C 16,6 C 52 % 1015,3 hPa 0,0 l/m 3,7 km/h (1 Bft) W 270 12,0 C 22,3 C 8,1 km/h (2 Bft)
20.09.2020 14:24 22,3 C 29,9 C 16,6 C 52 % 1015,3 hPa 0,0 l/m 3,9 km/h (1 Bft) S-SW 202 12,0 C 22,3 C 4,6 km/h (1 Bft)
20.09.2020 14:22 22,2 C 29,3 C 16,6 C 52 % 1015,3 hPa 0,0 l/m 4,7 km/h (1 Bft) S-SW 202 11,9 C 22,2 C 9,5 km/h (2 Bft)
20.09.2020 14:20 22,2 C 29,8 C 16,6 C 52 % 1015,3 hPa 0,0 l/m 4,3 km/h (1 Bft) S-SW 202 11,9 C 22,2 C 9,5 km/h (2 Bft)
20.09.2020 14:18 22,2 C 30,6 C 16,6 C 52 % 1015,3 hPa 0,0 l/m 4,0 km/h (1 Bft) W-SW 247 11,9 C 22,2 C 12,6 km/h (3 Bft)
20.09.2020 14:16 22,2 C 30,5 C 16,6 C 52 % 1015,3 hPa 0,0 l/m 4,3 km/h (1 Bft) N 360 11,9 C 22,2 C 12,6 km/h (3 Bft)
20.09.2020 14:14 22,1 C 30,7 C 16,6 C 52 % 1015,3 hPa 0,0 l/m 4,5 km/h (1 Bft) N 360 11,8 C 22,1 C 18,0 km/h (3 Bft)
20.09.2020 14:12 22,1 C 30,5 C 16,6 C 52 % 1015,3 hPa 0,0 l/m 4,7 km/h (1 Bft) S 180 11,8 C 22,1 C 18,0 km/h (3 Bft)
20.09.2020 14:10 22,2 C 30,9 C 16,6 C 52 % 1015,2 hPa 0,0 l/m 3,7 km/h (1 Bft) W-SW 247 11,9 C 22,2 C 6,2 km/h (2 Bft)
20.09.2020 14:08 22,2 C 30,6 C 16,6 C 52 % 1015,2 hPa 0,0 l/m 3,7 km/h (1 Bft) SO 135 11,9 C 22,2 C 6,2 km/h (2 Bft)
20.09.2020 14:06 22,1 C 30,3 C 16,6 C 52 % 1015,2 hPa 0,0 l/m 3,1 km/h (1 Bft) S-SW 202 11,8 C 22,1 C 8,3 km/h (2 Bft)
20.09.2020 14:04 22,2 C 30,9 C 16,6 C 52 % 1015,2 hPa 0,0 l/m 3,2 km/h (1 Bft) S-SO 157 11,9 C 22,2 C 8,3 km/h (2 Bft)
20.09.2020 14:02 22,1 C 31,1 C 16,5 C 52 % 1015,2 hPa 0,0 l/m 2,4 km/h (1 Bft) S-SW 202 11,8 C 22,1 C 5,4 km/h (1 Bft)
20.09.2020 14:00 22,0 C 30,3 C 16,5 C 52 % 1015,2 hPa 0,0 l/m 1,9 km/h (1 Bft) W 270 11,7 C 22,0 C 7,9 km/h (2 Bft)
20.09.2020 13:58 22,0 C 30,4 C 16,5 C 52 % 1015,2 hPa 0,0 l/m 2,1 km/h (1 Bft) W-NW 292 11,7 C 22,0 C 7,9 km/h (2 Bft)
20.09.2020 13:56 22,0 C 30,0 C 16,5 C 52 % 1015,2 hPa 0,0 l/m 2,4 km/h (1 Bft) O-NO 67 11,7 C 22,0 C 16,6 km/h (3 Bft)
20.09.2020 13:54 22,0 C 29,8 C 16,5 C 52 % 1015,2 hPa 0,0 l/m 2,1 km/h (1 Bft) O-NO 67 11,7 C 22,0 C 16,6 km/h (3 Bft)
20.09.2020 13:52 22,0 C 30,4 C 16,5 C 52 % 1015,2 hPa 0,0 l/m 2,4 km/h (1 Bft) W-NW 292 11,7 C 22,0 C 3,5 km/h (1 Bft)
20.09.2020 13:50 22,1 C 29,5 C 16,5 C 53 % 1015,3 hPa 0,0 l/m 3,2 km/h (1 Bft) O 90 12,1 C 22,1 C 2,3 km/h (1 Bft)
20.09.2020 13:48 21,9 C 29,6 C 16,5 C 52 % 1015,3 hPa 0,0 l/m 3,5 km/h (1 Bft) SW 225 11,6 C 21,9 C 2,3 km/h (1 Bft)
20.09.2020 13:46 21,9 C 30,0 C 16,5 C 53 % 1015,3 hPa 0,0 l/m 3,7 km/h (1 Bft) O 90 11,9 C 21,9 C 3,7 km/h (1 Bft)
20.09.2020 13:44 21,8 C 29,7 C 16,5 C 52 % 1015,3 hPa 0,0 l/m 3,9 km/h (1 Bft) O 90 11,5 C 21,8 C 12,2 km/h (2 Bft)
20.09.2020 13:42 21,9 C 29,4 C 16,5 C 53 % 1015,3 hPa 0,0 l/m 3,7 km/h (1 Bft) O-SO 112 11,9 C 21,9 C 12,2 km/h (2 Bft)
20.09.2020 13:40 22,0 C 30,7 C 16,5 C 53 % 1015,3 hPa 0,0 l/m 3,4 km/h (1 Bft) W 270 12,0 C 22,0 C 5,6 km/h (1 Bft)
20.09.2020 13:38 21,8 C 30,4 C 16,5 C 52 % 1015,3 hPa 0,0 l/m 3,4 km/h (1 Bft) NW 315 11,5 C 21,8 C 7,7 km/h (2 Bft)
20.09.2020 13:36 21,8 C 30,4 C 16,5 C 52 % 1015,3 hPa 0,0 l/m 3,5 km/h (1 Bft) O-SO 112 11,5 C 21,8 C 7,7 km/h (2 Bft)
20.09.2020 13:34 21,9 C 30,7 C 16,5 C 52 % 1015,3 hPa 0,0 l/m 3,2 km/h (1 Bft) O-NO 67 11,6 C 21,9 C 4,6 km/h (1 Bft)
20.09.2020 13:32 21,9 C 30,5 C 16,5 C 52 % 1015,3 hPa 0,0 l/m 3,4 km/h (1 Bft) SO 135 11,6 C 21,9 C 10,6 km/h (2 Bft)
20.09.2020 13:30 21,7 C 30,4 C 16,5 C 52 % 1015,3 hPa 0,0 l/m 2,9 km/h (1 Bft) NO 45 11,4 C 21,7 C 10,6 km/h (2 Bft)
20.09.2020 13:28 21,8 C 29,8 C 16,5 C 53 % 1015,3 hPa 0,0 l/m 2,3 km/h (1 Bft) N-NW 337 11,8 C 21,8 C 11,0 km/h (2 Bft)
20.09.2020 13:26 21,8 C 30,0 C 16,4 C 53 % 1015,3 hPa 0,0 l/m 2,4 km/h (1 Bft) SW 225 11,8 C 21,8 C 12,4 km/h (3 Bft)
20.09.2020 13:24 21,8 C 30,0 C 16,4 C 53 % 1015,3 hPa 0,0 l/m 2,6 km/h (1 Bft) NW 315 11,8 C 21,8 C 12,4 km/h (3 Bft)
20.09.2020 13:22 21,8 C 29,7 C 16,4 C 52 % 1015,3 hPa 0,0 l/m 2,3 km/h (1 Bft) O-NO 67 11,5 C 21,8 C 5,4 km/h (1 Bft)
20.09.2020 13:20 21,7 C 29,3 C 16,4 C 52 % 1015,3 hPa 0,0 l/m 2,3 km/h (1 Bft) NO 45 11,4 C 21,7 C 4,4 km/h (1 Bft)
20.09.2020 13:18 21,7 C 29,1 C 16,4 C 52 % 1015,3 hPa 0,0 l/m 2,6 km/h (1 Bft) NO 45 11,4 C 21,7 C 4,4 km/h (1 Bft)
20.09.2020 13:16 21,7 C 28,7 C 16,4 C 53 % 1015,3 hPa 0,0 l/m 2,7 km/h (1 Bft) O-SO 112 11,7 C 21,7 C 6,6 km/h (2 Bft)
20.09.2020 13:14 21,8 C 29,3 C 16,4 C 53 % 1015,3 hPa 0,0 l/m 3,1 km/h (1 Bft) SW 225 11,8 C 21,8 C 6,6 km/h (2 Bft)
20.09.2020 13:12 21,7 C 29,4 C 16,4 C 53 % 1015,3 hPa 0,0 l/m 2,9 km/h (1 Bft) N 360 11,7 C 21,7 C 1,9 km/h (1 Bft)
20.09.2020 13:10 21,7 C 29,6 C 16,4 C 53 % 1015,4 hPa 0,0 l/m 3,2 km/h (1 Bft) NW 315 11,7 C 21,7 C 5,0 km/h (1 Bft)
20.09.2020 13:08 21,6 C 29,4 C 16,4 C 52 % 1015,4 hPa 0,0 l/m 3,2 km/h (1 Bft) O-SO 112 11,3 C 21,6 C 5,0 km/h (1 Bft)
20.09.2020 13:06 21,6 C 29,6 C 16,4 C 52 % 1015,4 hPa 0,0 l/m 3,1 km/h (1 Bft) N-NW 337 11,3 C 21,6 C 5,4 km/h (1 Bft)
20.09.2020 13:04 21,5 C 29,6 C 16,4 C 52 % 1015,4 hPa 0,0 l/m 3,7 km/h (1 Bft) O 90 11,2 C 21,5 C 6,0 km/h (2 Bft)
20.09.2020 13:02 21,5 C 29,4 C 16,4 C 52 % 1015,4 hPa 0,0 l/m 3,9 km/h (1 Bft) N-NW 337 11,2 C 21,5 C 10,2 km/h (2 Bft)
20.09.2020 13:00 21,6 C 29,8 C 16,4 C 52 % 1015,4 hPa 0,0 l/m 4,2 km/h (1 Bft) W-SW 247 11,3 C 21,6 C 10,2 km/h (2 Bft)
20.09.2020 12:58 21,6 C 29,5 C 16,4 C 52 % 1015,4 hPa 0,0 l/m 4,2 km/h (1 Bft) S-SO 157 11,3 C 21,6 C 7,0 km/h (2 Bft)
20.09.2020 12:56 21,5 C 29,4 C 16,3 C 52 % 1015,4 hPa 0,0 l/m 4,2 km/h (1 Bft) O-NO 67 11,2 C 21,5 C 19,1 km/h (3 Bft)
20.09.2020 12:54 21,7 C 30,0 C 16,3 C 52 % 1015,4 hPa 0,0 l/m 3,9 km/h (1 Bft) O-NO 67 11,4 C 21,7 C 19,1 km/h (3 Bft)
20.09.2020 12:52 21,7 C 29,5 C 16,3 C 52 % 1015,4 hPa 0,0 l/m 4,2 km/h (1 Bft) O-SO 112 11,4 C 21,7 C 14,3 km/h (3 Bft)
20.09.2020 12:50 21,7 C 30,0 C 16,3 C 53 % 1015,2 hPa 0,0 l/m 3,4 km/h (1 Bft) S 180 11,7 C 21,7 C 7,3 km/h (2 Bft)
20.09.2020 12:48 21,7 C 30,0 C 16,3 C 53 % 1015,2 hPa 0,0 l/m 3,4 km/h (1 Bft) N-NO 22 11,7 C 21,7 C 7,3 km/h (2 Bft)
20.09.2020 12:46 21,7 C 30,0 C 16,3 C 53 % 1015,2 hPa 0,0 l/m 3,1 km/h (1 Bft) S-SW 202 11,7 C 21,7 C 5,0 km/h (1 Bft)
20.09.2020 12:44 21,7 C 29,5 C 16,3 C 53 % 1015,2 hPa 0,0 l/m 3,5 km/h (1 Bft) SO 135 11,7 C 21,7 C 5,4 km/h (1 Bft)
20.09.2020 12:42 21,8 C 30,4 C 16,3 C 53 % 1015,2 hPa 0,0 l/m 2,6 km/h (1 Bft) O 90 11,8 C 21,8 C 5,4 km/h (1 Bft)
20.09.2020 12:40 21,8 C 30,7 C 16,3 C 53 % 1015,2 hPa 0,0 l/m 2,9 km/h (1 Bft) W-NW 292 11,8 C 21,8 C 3,3 km/h (1 Bft)
20.09.2020 12:38 21,8 C 30,4 C 16,3 C 54 % 1015,2 hPa 0,0 l/m 3,4 km/h (1 Bft) S 180 12,1 C 21,8 C 3,3 km/h (1 Bft)
20.09.2020 12:36 21,7 C 29,7 C 16,3 C 53 % 1015,2 hPa 0,0 l/m 3,5 km/h (1 Bft) S-SO 157 11,7 C 21,7 C 8,1 km/h (2 Bft)
20.09.2020 12:34 21,7 C 29,5 C 16,2 C 53 % 1015,2 hPa 0,0 l/m 3,9 km/h (1 Bft) S 180 11,7 C 21,7 C 8,7 km/h (2 Bft)
20.09.2020 12:32 21,7 C 29,7 C 16,2 C 53 % 1015,2 hPa 0,0 l/m 3,7 km/h (1 Bft) O-SO 112 11,7 C 21,7 C 10,2 km/h (2 Bft)
20.09.2020 12:30 21,6 C 29,6 C 16,2 C 53 % 1015,4 hPa 0,0 l/m 3,9 km/h (1 Bft) O 90 11,6 C 21,6 C 15,4 km/h (3 Bft)
20.09.2020 12:28 21,6 C 29,6 C 16,2 C 53 % 1015,4 hPa 0,0 l/m 3,4 km/h (1 Bft) O-NO 67 11,6 C 21,6 C 15,4 km/h (3 Bft)
20.09.2020 12:26 21,6 C 29,9 C 16,2 C 53 % 1015,4 hPa 0,0 l/m 3,7 km/h (1 Bft) O-NO 67 11,6 C 21,6 C 10,8 km/h (2 Bft)
20.09.2020 12:24 21,6 C 30,4 C 16,2 C 53 % 1015,4 hPa 0,0 l/m 4,7 km/h (1 Bft) O 90 11,6 C 21,6 C 10,8 km/h (2 Bft)
20.09.2020 12:22 21,5 C 29,9 C 16,2 C 54 % 1015,4 hPa 0,0 l/m 5,0 km/h (1 Bft) W 270 11,8 C 21,5 C 6,0 km/h (2 Bft)
20.09.2020 12:20 21,5 C 29,8 C 16,2 C 53 % 1015,4 hPa 0,0 l/m 6,1 km/h (2 Bft) N-NO 22 11,5 C 21,5 C 9,7 km/h (2 Bft)
20.09.2020 12:18 21,3 C 29,2 C 16,1 C 53 % 1015,4 hPa 0,0 l/m 6,6 km/h (2 Bft) O-NO 67 11,3 C 21,2 C 15,6 km/h (3 Bft)
20.09.2020 12:16 21,3 C 28,8 C 16,1 C 53 % 1015,4 hPa 0,0 l/m 6,8 km/h (2 Bft) O-NO 67 11,3 C 21,2 C 15,6 km/h (3 Bft)
20.09.2020 12:14 21,2 C 28,9 C 16,1 C 53 % 1015,4 hPa 0,0 l/m 6,1 km/h (2 Bft) O 90 11,2 C 21,2 C 13,7 km/h (3 Bft)
20.09.2020 12:12 21,3 C 28,9 C 15,9 C 55 % 1015,4 hPa 0,0 l/m 5,5 km/h (1 Bft) NO 45 11,9 C 21,3 C 9,3 km/h (2 Bft)
20.09.2020 12:10 21,3 C 28,9 C 15,9 C 55 % 1015,4 hPa 0,0 l/m 5,5 km/h (1 Bft) NO 45 11,9 C 21,3 C 9,3 km/h (2 Bft)
20.09.2020 12:08 21,3 C 28,9 C 15,9 C 55 % 1015,4 hPa 0,0 l/m 5,5 km/h (1 Bft) NO 45 11,9 C 21,3 C 9,3 km/h (2 Bft)
20.09.2020 12:06 21,3 C 28,9 C 15,9 C 55 % 1015,4 hPa 0,0 l/m 5,5 km/h (1 Bft) NO 45 11,9 C 21,3 C 9,3 km/h (2 Bft)
20.09.2020 12:04 21,3 C 28,9 C 15,9 C 55 % 1015,4 hPa 0,0 l/m 5,5 km/h (1 Bft) NO 45 11,9 C 21,3 C 9,3 km/h (2 Bft)
20.09.2020 12:02 21,3 C 28,9 C 15,9 C 55 % 1015,4 hPa 0,0 l/m 5,5 km/h (1 Bft) NO 45 11,9 C 21,3 C 9,3 km/h (2 Bft)
20.09.2020 12:00 21,2 C 28,9 C 15,9 C 56 % 1015,4 hPa 0,0 l/m 6,0 km/h (2 Bft) O-SO 112 12,1 C 21,2 C 6,4 km/h (2 Bft)
20.09.2020 11:58 21,2 C 29,1 C 15,9 C 55 % 1015,4 hPa 0,0 l/m 7,4 km/h (2 Bft) O-SO 112 11,8 C 20,8 C 6,4 km/h (2 Bft)
20.09.2020 11:56 21,1 C 28,7 C 15,9 C 55 % 1015,4 hPa 0,0 l/m 7,4 km/h (2 Bft) NW 315 11,7 C 20,7 C 29,2 km/h (5 Bft)
20.09.2020 11:54 20,9 C 28,1 C 15,9 C 54 % 1015,4 hPa 0,0 l/m 8,0 km/h (2 Bft) O-SO 112 11,2 C 20,3 C 8,3 km/h (2 Bft)
20.09.2020 11:52 20,9 C 27,9 C 15,8 C 54 % 1015,4 hPa 0,0 l/m 7,6 km/h (2 Bft) O-NO 67 11,2 C 20,4 C 20,5 km/h (4 Bft)
20.09.2020 11:50 20,9 C 27,6 C 15,8 C 55 % 1015,5 hPa 0,0 l/m 7,6 km/h (2 Bft) O-NO 67 11,5 C 20,4 C 20,5 km/h (4 Bft)
20.09.2020 11:48 21,1 C 27,5 C 15,8 C 56 % 1015,5 hPa 0,0 l/m 6,9 km/h (2 Bft) O-NO 67 12,0 C 20,9 C 13,5 km/h (3 Bft)
20.09.2020 11:46 21,2 C 28,0 C 15,8 C 57 % 1015,5 hPa 0,0 l/m 6,0 km/h (2 Bft) SO 135 12,3 C 21,2 C 15,4 km/h (3 Bft)
20.09.2020 11:44 21,0 C 27,6 C 15,7 C 56 % 1015,5 hPa 0,0 l/m 6,0 km/h (2 Bft) O-NO 67 11,9 C 21,0 C 15,4 km/h (3 Bft)
20.09.2020 11:42 20,9 C 27,2 C 15,7 C 55 % 1015,5 hPa 0,0 l/m 5,6 km/h (1 Bft) O-NO 67 11,5 C 20,9 C 8,7 km/h (2 Bft)
20.09.2020 11:40 21,0 C 27,7 C 15,7 C 56 % 1015,5 hPa 0,0 l/m 4,5 km/h (1 Bft) O-NO 67 11,9 C 21,0 C 15,8 km/h (3 Bft)
20.09.2020 11:38 21,1 C 28,6 C 15,6 C 57 % 1015,5 hPa 0,0 l/m 3,9 km/h (1 Bft) NW 315 12,2 C 21,1 C 15,8 km/h (3 Bft)
20.09.2020 11:36 21,2 C 28,5 C 15,6 C 59 % 1015,5 hPa 0,0 l/m 3,2 km/h (1 Bft) S-SO 157 12,9 C 21,2 C 5,6 km/h (1 Bft)
20.09.2020 11:34 21,1 C 28,8 C 15,6 C 58 % 1015,5 hPa 0,0 l/m 3,4 km/h (1 Bft) O-NO 67 12,5 C 21,1 C 5,6 km/h (1 Bft)
20.09.2020 11:32 20,9 C 28,7 C 15,5 C 59 % 1015,5 hPa 0,0 l/m 4,0 km/h (1 Bft) O-NO 67 12,6 C 20,9 C 4,8 km/h (1 Bft)
20.09.2020 11:30 20,9 C 27,4 C 15,5 C 59 % 1015,6 hPa 0,0 l/m 4,3 km/h (1 Bft) SW 225 12,6 C 20,9 C 5,4 km/h (1 Bft)
20.09.2020 11:28 20,8 C 27,2 C 15,5 C 59 % 1015,6 hPa 0,0 l/m 4,7 km/h (1 Bft) O-SO 112 12,5 C 20,8 C 5,4 km/h (1 Bft)
20.09.2020 11:26 20,8 C 26,8 C 15,5 C 60 % 1015,6 hPa 0,0 l/m 4,5 km/h (1 Bft) O-NO 67 12,7 C 20,8 C 6,2 km/h (2 Bft)
20.09.2020 11:24 20,6 C 26,5 C 15,5 C 59 % 1015,6 hPa 0,0 l/m 5,3 km/h (1 Bft) S-SO 157 12,3 C 20,6 C 7,1 km/h (2 Bft)
20.09.2020 11:22 20,7 C 26,7 C 15,4 C 60 % 1015,6 hPa 0,0 l/m 5,8 km/h (2 Bft) N-NO 22 12,7 C 20,7 C 8,1 km/h (2 Bft)
20.09.2020 11:20 20,6 C 26,5 C 15,3 C 60 % 1015,6 hPa 0,0 l/m 6,4 km/h (2 Bft) SW 225 12,6 C 20,6 C 8,1 km/h (2 Bft)
20.09.2020 11:18 20,6 C 27,0 C 15,3 C 60 % 1015,6 hPa 0,0 l/m 5,8 km/h (2 Bft) O-NO 67 12,6 C 20,6 C 8,3 km/h (2 Bft)
20.09.2020 11:16 20,5 C 26,3 C 15,3 C 60 % 1015,6 hPa 0,0 l/m 6,3 km/h (2 Bft) S-SO 157 12,5 C 20,5 C 26,5 km/h (4 Bft)
20.09.2020 11:14 20,4 C 26,1 C 15,2 C 60 % 1015,6 hPa 0,0 l/m 7,1 km/h (2 Bft) O-NO 67 12,4 C 20,1 C 26,5 km/h (4 Bft)
20.09.2020 11:12 20,4 C 26,1 C 15,2 C 61 % 1015,6 hPa 0,0 l/m 6,3 km/h (2 Bft) O-NO 67 12,6 C 20,4 C 26,5 km/h (4 Bft)
20.09.2020 11:10 20,4 C 26,7 C 15,2 C 63 % 1015,5 hPa 0,0 l/m 5,0 km/h (1 Bft) O-NO 67 13,1 C 20,4 C 10,8 km/h (2 Bft)
20.09.2020 11:08 20,4 C 26,2 C 15,1 C 63 % 1015,5 hPa 0,0 l/m 4,2 km/h (1 Bft) O-SO 112 13,1 C 20,4 C 8,7 km/h (2 Bft)
20.09.2020 11:06 20,3 C 26,0 C 15,1 C 63 % 1015,5 hPa 0,0 l/m 4,3 km/h (1 Bft) S-SO 157 13,0 C 20,3 C 17,2 km/h (3 Bft)
20.09.2020 11:04 20,4 C 26,2 C 15,0 C 65 % 1015,5 hPa 0,0 l/m 3,5 km/h (1 Bft) O-NO 67 13,6 C 20,4 C 11,6 km/h (2 Bft)
20.09.2020 11:02 20,2 C 26,5 C 15,0 C 66 % 1015,5 hPa 0,0 l/m 3,1 km/h (1 Bft) S-SW 202 13,6 C 20,2 C 3,9 km/h (1 Bft)
20.09.2020 11:00 20,1 C 26,9 C 14,9 C 67 % 1015,5 hPa 0,0 l/m 3,1 km/h (1 Bft) NW 315 13,8 C 20,1 C 4,8 km/h (1 Bft)
20.09.2020 10:58 19,9 C 25,6 C 14,9 C 67 % 1015,5 hPa 0,2 l/m 3,5 km/h (1 Bft) NW 315 13,6 C 19,9 C 4,8 km/h (1 Bft)
20.09.2020 10:56 19,7 C 25,7 C 14,9 C 69 % 1015,5 hPa 0,0 l/m 3,5 km/h (1 Bft) N 360 13,8 C 19,7 C 3,1 km/h (1 Bft)
20.09.2020 10:54 19,3 C 25,9 C 14,8 C 70 % 1015,5 hPa 0,0 l/m 3,9 km/h (1 Bft) N-NW 337 13,7 C 19,3 C 5,2 km/h (1 Bft)
20.09.2020 10:52 19,1 C 25,8 C 14,8 C 71 % 1015,5 hPa 0,0 l/m 4,0 km/h (1 Bft) W-SW 247 13,7 C 19,1 C 5,4 km/h (1 Bft)
20.09.2020 10:50 19,0 C 25,8 C 14,8 C 72 % 1015,8 hPa 0,0 l/m 4,7 km/h (1 Bft) NO 45 13,8 C 19,0 C 9,5 km/h (2 Bft)
20.09.2020 10:48 18,7 C 25,4 C 14,7 C 73 % 1015,8 hPa 0,0 l/m 5,1 km/h (1 Bft) W-NW 292 13,8 C 18,7 C 9,5 km/h (2 Bft)
20.09.2020 10:46 18,6 C 25,4 C 14,7 C 74 % 1015,8 hPa 0,0 l/m 4,7 km/h (1 Bft) W-SW 247 13,9 C 18,6 C 9,8 km/h (2 Bft)
20.09.2020 10:44 18,4 C 25,3 C 14,7 C 75 % 1015,8 hPa 0,0 l/m 5,1 km/h (1 Bft) NW 315 13,9 C 18,4 C 9,8 km/h (2 Bft)
20.09.2020 10:42 18,3 C 25,0 C 14,6 C 75 % 1015,8 hPa 0,0 l/m 5,6 km/h (1 Bft) W-NW 292 13,8 C 18,3 C 8,5 km/h (2 Bft)
20.09.2020 10:40 18,0 C 24,2 C 14,6 C 75 % 1015,8 hPa 0,0 l/m 7,1 km/h (2 Bft) NW 315 13,5 C 17,7 C 8,5 km/h (2 Bft)
20.09.2020 10:38 18,0 C 24,1 C 14,6 C 75 % 1015,8 hPa 0,0 l/m 7,1 km/h (2 Bft) SO 135 13,5 C 17,7 C 6,6 km/h (2 Bft)
20.09.2020 10:36 17,8 C 23,0 C 14,5 C 75 % 1015,8 hPa 0,0 l/m 7,6 km/h (2 Bft) S-SO 157 13,3 C 17,2 C 14,9 km/h (3 Bft)
20.09.2020 10:34 17,6 C 22,8 C 14,5 C 76 % 1015,8 hPa 0,0 l/m 8,0 km/h (2 Bft) W 270 13,3 C 16,8 C 12,0 km/h (2 Bft)
20.09.2020 10:32 17,4 C 22,6 C 14,5 C 76 % 1015,8 hPa 0,0 l/m 7,7 km/h (2 Bft) N-NW 337 13,1 C 16,8 C 13,9 km/h (3 Bft)
20.09.2020 10:30 17,3 C 23,2 C 14,5 C 76 % 1015,9 hPa 0,0 l/m 6,6 km/h (2 Bft) W-NW 292 13,0 C 17,2 C 13,9 km/h (3 Bft)
20.09.2020 10:28 17,4 C 23,2 C 14,4 C 77 % 1015,9 hPa 0,0 l/m 5,3 km/h (1 Bft) NW 315 13,3 C 17,4 C 11,4 km/h (2 Bft)
20.09.2020 10:26 17,5 C 23,1 C 14,4 C 77 % 1015,9 hPa 0,0 l/m 4,7 km/h (1 Bft) W-NW 292 13,4 C 17,5 C 11,4 km/h (2 Bft)
20.09.2020 10:24 17,4 C 22,3 C 14,4 C 77 % 1015,9 hPa 0,0 l/m 3,2 km/h (1 Bft) W-NW 292 13,3 C 17,4 C 8,5 km/h (2 Bft)
20.09.2020 10:22 17,2 C 21,7 C 14,4 C 77 % 1015,9 hPa 0,0 l/m 2,6 km/h (1 Bft) W-NW 292 13,1 C 17,2 C 7,7 km/h (2 Bft)
20.09.2020 10:20 17,4 C 22,4 C 14,3 C 78 % 1015,9 hPa 0,0 l/m 2,4 km/h (1 Bft) S 180 13,5 C 17,4 C 7,7 km/h (2 Bft)
20.09.2020 10:18 17,2 C 21,5 C 14,3 C 78 % 1015,9 hPa 0,0 l/m 1,6 km/h (1 Bft) S-SW 202 13,3 C 17,2 C 3,3 km/h (1 Bft)
20.09.2020 10:16 17,0 C 21,9 C 14,3 C 78 % 1015,9 hPa 0,0 l/m 1,3 km/h (1 Bft) S-SW 202 13,1 C 17,0 C 2,3 km/h (1 Bft)
20.09.2020 10:14 16,7 C 21,7 C 14,3 C 79 % 1015,9 hPa 0,0 l/m 1,8 km/h (1 Bft) SW 225 13,0 C 16,7 C 3,1 km/h (1 Bft)
20.09.2020 10:12 16,7 C 21,4 C 14,3 C 80 % 1015,9 hPa 0,0 l/m 2,3 km/h (1 Bft) S-SW 202 13,2 C 16,7 C 5,2 km/h (1 Bft)
20.09.2020 10:10 16,7 C 21,2 C 14,2 C 81 % 1016,0 hPa 0,0 l/m 2,9 km/h (1 Bft) S 180 13,4 C 16,7 C 5,2 km/h (1 Bft)
20.09.2020 10:08 16,6 C 21,1 C 14,2 C 82 % 1016,0 hPa 0,0 l/m 3,5 km/h (1 Bft) S-SO 157 13,5 C 16,6 C 0,0 km/h (0 Bft)
20.09.2020 10:06 16,3 C 20,6 C 14,2 C 82 % 1016,0 hPa 0,0 l/m 4,7 km/h (1 Bft) O 90 13,2 C 16,3 C 5,2 km/h (1 Bft)
20.09.2020 10:04 16,1 C 20,0 C 14,2 C 83 % 1016,0 hPa 0,0 l/m 4,5 km/h (1 Bft) NW 315 13,2 C 16,1 C 9,1 km/h (2 Bft)
20.09.2020 10:02 15,9 C 20,2 C 14,2 C 83 % 1016,0 hPa 0,0 l/m 4,2 km/h (1 Bft) W-NW 292 13,0 C 15,9 C 9,1 km/h (2 Bft)
20.09.2020 10:00 15,8 C 20,0 C 14,2 C 84 % 1016,0 hPa 0,0 l/m 3,7 km/h (1 Bft) W-NW 292 13,1 C 15,8 C 9,1 km/h (2 Bft)
20.09.2020 09:58 15,6 C 19,4 C 14,2 C 85 % 1016,0 hPa 0,0 l/m 3,2 km/h (1 Bft) W-NW 292 13,1 C 15,6 C 9,1 km/h (2 Bft)
20.09.2020 09:56 15,7 C 19,4 C 14,1 C 85 % 1016,0 hPa 0,0 l/m 1,9 km/h (1 Bft) W 270 13,2 C 15,7 C 7,9 km/h (2 Bft)
20.09.2020 09:54 15,5 C 19,3 C 14,1 C 86 % 1016,0 hPa 0,0 l/m 1,8 km/h (1 Bft) O 90 13,2 C 15,5 C 2,3 km/h (1 Bft)
20.09.2020 09:52 15,3 C 19,0 C 14,1 C 86 % 1016,0 hPa 0,0 l/m 1,9 km/h (1 Bft) W 270 13,0 C 15,3 C 5,6 km/h (1 Bft)
20.09.2020 09:50 15,3 C 18,9 C 14,1 C 86 % 1015,9 hPa 0,0 l/m 2,1 km/h (1 Bft) N 360 13,0 C 15,3 C 5,6 km/h (1 Bft)
20.09.2020 09:48 15,2 C 19,1 C 14,1 C 86 % 1015,9 hPa 0,0 l/m 1,9 km/h (1 Bft) O-SO 112 12,9 C 15,2 C 5,2 km/h (1 Bft)
20.09.2020 09:46 14,9 C 18,5 C 14,1 C 86 % 1015,9 hPa 0,0 l/m 1,6 km/h (1 Bft) O 90 12,6 C 14,9 C 3,1 km/h (1 Bft)
20.09.2020 09:44 14,8 C 18,3 C 14,1 C 87 % 1015,9 hPa 0,0 l/m 1,3 km/h (1 Bft) O-SO 112 12,7 C 14,8 C 3,1 km/h (1 Bft)
20.09.2020 09:42 14,5 C 17,5 C 14,0 C 87 % 1015,9 hPa 0,0 l/m 1,4 km/h (1 Bft) NW 315 12,4 C 14,5 C 5,8 km/h (2 Bft)
20.09.2020 09:40 14,3 C 17,1 C 14,0 C 87 % 1015,9 hPa 0,0 l/m 1,3 km/h (1 Bft) SW 225 12,2 C 14,3 C 5,8 km/h (2 Bft)
20.09.2020 09:38 14,2 C 17,2 C 14,0 C 87 % 1015,9 hPa 0,0 l/m 1,4 km/h (1 Bft) O-SO 112 12,1 C 14,2 C 0,0 km/h (0 Bft)
20.09.2020 09:36 14,1 C 17,1 C 14,0 C 87 % 1015,9 hPa 0,0 l/m 1,4 km/h (1 Bft) O-SO 112 12,0 C 14,1 C 11,2 km/h (2 Bft)
20.09.2020 09:34 14,0 C 16,7 C 14,0 C 87 % 1015,9 hPa 0,0 l/m 1,9 km/h (1 Bft) NO 45 11,9 C 14,0 C 3,9 km/h (1 Bft)
20.09.2020 09:32 13,6 C 16,3 C 14,0 C 87 % 1015,9 hPa 0,0 l/m 1,8 km/h (1 Bft) NO 45 11,5 C 13,6 C 3,9 km/h (1 Bft)
20.09.2020 09:30 13,4 C 15,9 C 14,0 C 88 % 1015,9 hPa 0,0 l/m 1,4 km/h (1 Bft) W-NW 292 11,5 C 13,4 C 4,2 km/h (1 Bft)
20.09.2020 09:28 13,4 C 16,2 C 14,0 C 88 % 1015,9 hPa 0,0 l/m 1,3 km/h (1 Bft) O-NO 67 11,5 C 13,4 C 4,2 km/h (1 Bft)
20.09.2020 09:26 13,0 C 16,2 C 14,0 C 88 % 1015,9 hPa 0,0 l/m 1,4 km/h (1 Bft) W-SW 247 11,1 C 13,0 C 3,3 km/h (1 Bft)
20.09.2020 09:24 12,9 C 15,7 C 14,0 C 88 % 1015,9 hPa 0,0 l/m 1,1 km/h (1 Bft) O-SO 112 11,0 C 12,9 C 3,3 km/h (1 Bft)
20.09.2020 09:22 12,6 C 15,2 C 14,0 C 88 % 1015,9 hPa 0,0 l/m 1,1 km/h (1 Bft) O-SO 112 10,7 C 12,6 C 4,2 km/h (1 Bft)
20.09.2020 09:20 12,6 C 15,1 C 14,0 C 89 % 1015,9 hPa 0,0 l/m 1,4 km/h (1 Bft) O-NO 67 10,8 C 12,6 C 4,2 km/h (1 Bft)
20.09.2020 09:18 12,4 C 14,3 C 14,0 C 89 % 1015,9 hPa 0,0 l/m 1,1 km/h (1 Bft) W 270 10,6 C 12,4 C 3,1 km/h (1 Bft)
20.09.2020 09:16 12,2 C 14,1 C 14,0 C 89 % 1015,9 hPa 0,0 l/m 1,1 km/h (1 Bft) SW 225 10,4 C 12,2 C 2,3 km/h (1 Bft)
20.09.2020 09:14 12,2 C 14,1 C 13,9 C 89 % 1015,9 hPa 0,0 l/m 1,0 km/h (0 Bft) SW 225 10,4 C 12,2 C 2,3 km/h (1 Bft)
20.09.2020 09:12 12,0 C 13,7 C 13,9 C 89 % 1015,9 hPa 0,0 l/m 1,0 km/h (0 Bft) O-SO 112 10,2 C 12,0 C 2,3 km/h (1 Bft)
20.09.2020 09:10 11,7 C 13,5 C 13,9 C 89 % 1016,1 hPa 0,0 l/m 0,5 km/h (0 Bft) NW 315 9,9 C 11,7 C 0,0 km/h (0 Bft)
20.09.2020 09:08 11,5 C 13,2 C 13,9 C 89 % 1016,1 hPa 0,0 l/m 0,3 km/h (0 Bft) O-NO 67 9,8 C 11,5 C 4,2 km/h (1 Bft)
20.09.2020 09:06 11,2 C 13,0 C 14,0 C 89 % 1016,1 hPa 0,0 l/m 0,2 km/h (0 Bft) W-NW 292 9,5 C 11,2 C 4,2 km/h (1 Bft)
20.09.2020 09:04 11,1 C 12,7 C 14,0 C 89 % 1016,1 hPa 0,0 l/m 0,0 km/h (0 Bft) W 270 9,4 C 11,1 C 0,0 km/h (0 Bft)
20.09.2020 09:02 10,9 C 12,7 C 13,9 C 89 % 1016,1 hPa 0,0 l/m 0,0 km/h (0 Bft) S-SW 202 9,2 C 10,9 C 0,0 km/h (0 Bft)
20.09.2020 09:00 10,7 C 12,5 C 13,9 C 89 % 1016,1 hPa 0,0 l/m 0,2 km/h (0 Bft) S-SW 202 9,0 C 10,7 C 0,0 km/h (0 Bft)
20.09.2020 08:58 10,5 C 12,3 C 13,9 C 89 % 1016,1 hPa 0,0 l/m 0,2 km/h (0 Bft) O-NO 67 8,8 C 10,5 C 0,0 km/h (0 Bft)
20.09.2020 08:56 10,3 C 12,1 C 13,9 C 89 % 1016,1 hPa 0,0 l/m 0,3 km/h (0 Bft) S-SW 202 8,6 C 10,3 C 0,0 km/h (0 Bft)
20.09.2020 08:54 10,1 C 11,7 C 13,9 C 89 % 1016,1 hPa 0,0 l/m 0,6 km/h (0 Bft) SO 135 8,4 C 10,1 C 0,0 km/h (0 Bft)
20.09.2020 08:52 10,0 C 11,7 C 13,9 C 89 % 1016,1 hPa 0,0 l/m 0,6 km/h (0 Bft) S-SO 157 8,3 C 10,0 C 2,1 km/h (1 Bft)
20.09.2020 08:50 9,7 C 11,5 C 13,9 C 89 % 1016,1 hPa 0,0 l/m 0,6 km/h (0 Bft) N 360 8,0 C 9,7 C 2,1 km/h (1 Bft)
20.09.2020 08:48 9,5 C 11,1 C 13,9 C 89 % 1016,1 hPa 0,0 l/m 0,3 km/h (0 Bft) O 90 7,8 C 9,5 C 0,0 km/h (0 Bft)
20.09.2020 08:46 9,3 C 10,8 C 13,9 C 89 % 1016,1 hPa 0,0 l/m 0,3 km/h (0 Bft) O 90 7,6 C 9,3 C 2,7 km/h (1 Bft)
20.09.2020 08:44 9,0 C 10,7 C 13,9 C 89 % 1016,1 hPa 0,0 l/m 0,0 km/h (0 Bft) W-NW 292 7,3 C 9,0 C 2,7 km/h (1 Bft)
20.09.2020 08:42 8,7 C 10,3 C 13,9 C 89 % 1016,1 hPa 0,0 l/m 0,0 km/h (0 Bft) O-NO 67 7,0 C 8,7 C 0,0 km/h (0 Bft)
20.09.2020 08:40 8,6 C 10,2 C 13,9 C 89 % 1016,1 hPa 0,0 l/m 0,0 km/h (0 Bft) SO 135 6,9 C 8,6 C 0,0 km/h (0 Bft)
20.09.2020 08:38 8,3 C 9,9 C 14,0 C 89 % 1016,1 hPa 0,0 l/m 0,0 km/h (0 Bft) SO 135 6,6 C 8,3 C 0,0 km/h (0 Bft)
20.09.2020 08:36 8,3 C 9,4 C 14,0 C 89 % 1016,1 hPa 0,0 l/m 0,2 km/h (0 Bft) SO 135 6,6 C 8,3 C 0,0 km/h (0 Bft)
20.09.2020 08:34 7,7 C 8,6 C 14,0 C 90 % 1016,1 hPa 0,0 l/m 0,2 km/h (0 Bft) SO 135 6,2 C 7,7 C 0,0 km/h (0 Bft)
20.09.2020 08:32 7,4 C 7,9 C 14,0 C 89 % 1016,1 hPa 0,0 l/m 0,2 km/h (0 Bft) SO 135 5,7 C 7,4 C 0,0 km/h (0 Bft)
20.09.2020 08:30 7,0 C 7,3 C 14,0 C 89 % 1016,1 hPa 0,0 l/m 0,2 km/h (0 Bft) O-NO 67 5,3 C 7,0 C 0,0 km/h (0 Bft)
20.09.2020 08:28 6,9 C 7,1 C 14,0 C 90 % 1016,1 hPa 0,0 l/m 0,0 km/h (0 Bft) W-SW 247 5,4 C 6,9 C 0,0 km/h (0 Bft)
20.09.2020 08:26 6,9 C 7,0 C 14,0 C 90 % 1016,1 hPa 0,0 l/m 0,0 km/h (0 Bft) NO 45 5,4 C 6,9 C 0,0 km/h (0 Bft)
20.09.2020 08:24 6,8 C 7,0 C 14,0 C 89 % 1016,1 hPa 0,0 l/m 0,0 km/h (0 Bft) O-SO 112 5,1 C 6,8 C 0,0 km/h (0 Bft)
20.09.2020 08:22 6,7 C 7,1 C 14,0 C 89 % 1016,1 hPa 0,0 l/m 0,0 km/h (0 Bft) SW 225 5,0 C 6,7 C 0,0 km/h (0 Bft)
20.09.2020 08:20 6,6 C 7,1 C 14,0 C 89 % 1016,1 hPa 0,0 l/m 0,2 km/h (0 Bft) NO 45 4,9 C 6,6 C 0,0 km/h (0 Bft)
20.09.2020 08:18 6,4 C 7,1 C 14,0 C 89 % 1016,1 hPa 0,0 l/m 0,6 km/h (0 Bft) SO 135 4,7 C 6,4 C 0,0 km/h (0 Bft)
20.09.2020 08:16 6,4 C 6,7 C 14,0 C 89 % 1016,1 hPa 0,0 l/m 1,0 km/h (0 Bft) SW 225 4,7 C 6,4 C 7,3 km/h (2 Bft)
20.09.2020 08:14 6,4 C 6,7 C 14,0 C 89 % 1016,1 hPa 0,0 l/m 1,0 km/h (0 Bft) O-SO 112 4,7 C 6,4 C 0,0 km/h (0 Bft)
20.09.2020 08:12 6,4 C 6,7 C 14,0 C 89 % 1016,1 hPa 0,0 l/m 1,0 km/h (0 Bft) NW 315 4,7 C 6,4 C 4,1 km/h (1 Bft)
20.09.2020 08:10 6,3 C 6,6 C 14,0 C 89 % 1016,1 hPa 0,0 l/m 1,0 km/h (0 Bft) O-NO 67 4,6 C 6,3 C 7,3 km/h (2 Bft)
20.09.2020 08:08 6,3 C 6,6 C 14,0 C 89 % 1016,1 hPa 0,0 l/m 0,8 km/h (0 Bft) S-SO 157 4,6 C 6,3 C 7,3 km/h (2 Bft)
20.09.2020 08:06 6,5 C 6,5 C 14,0 C 89 % 1016,1 hPa 0,0 l/m 0,5 km/h (0 Bft) S 180 4,8 C 6,5 C 2,3 km/h (1 Bft)
20.09.2020 08:04 6,4 C 6,4 C 14,0 C 89 % 1016,1 hPa 0,0 l/m 0,6 km/h (0 Bft) S-SW 202 4,7 C 6,4 C 0,0 km/h (0 Bft)
20.09.2020 08:02 6,7 C 6,3 C 14,0 C 89 % 1016,1 hPa 0,0 l/m 0,5 km/h (0 Bft) SO 135 5,0 C 6,7 C 0,0 km/h (0 Bft)
20.09.2020 08:00 6,2 C 6,3 C 14,0 C 89 % 1016,1 hPa 0,0 l/m 0,5 km/h (0 Bft) NW 315 4,5 C 6,2 C 2,1 km/h (1 Bft)
20.09.2020 07:58 6,2 C 6,0 C 14,0 C 89 % 1016,1 hPa 0,0 l/m 0,5 km/h (0 Bft) SW 225 4,5 C 6,2 C 4,6 km/h (1 Bft)
20.09.2020 07:56 6,2 C 5,9 C 14,0 C 89 % 1016,1 hPa 0,0 l/m 0,6 km/h (0 Bft) O-SO 112 4,5 C 6,2 C 4,6 km/h (1 Bft)
20.09.2020 07:54 6,2 C 5,9 C 14,0 C 89 % 1016,1 hPa 0,0 l/m 0,8 km/h (0 Bft) N 360 4,5 C 6,2 C 0,0 km/h (0 Bft)
20.09.2020 07:52 6,1 C 5,9 C 14,0 C 89 % 1016,1 hPa 0,0 l/m 1,1 km/h (1 Bft) O-NO 67 4,4 C 6,1 C 0,0 km/h (0 Bft)
20.09.2020 07:50 5,9 C 5,9 C 14,0 C 90 % 1016,1 hPa 0,0 l/m 1,4 km/h (1 Bft) NW 315 4,4 C 5,9 C 2,7 km/h (1 Bft)
20.09.2020 07:48 5,6 C 6,0 C 14,0 C 90 % 1016,1 hPa 0,0 l/m 1,4 km/h (1 Bft) S-SW 202 4,1 C 5,6 C 2,7 km/h (1 Bft)
20.09.2020 07:46 5,8 C 6,0 C 14,0 C 90 % 1016,1 hPa 0,0 l/m 1,1 km/h (1 Bft) O 90 4,3 C 5,8 C 2,5 km/h (1 Bft)
20.09.2020 07:44 5,8 C 5,9 C 14,0 C 90 % 1016,1 hPa 0,0 l/m 1,0 km/h (0 Bft) NW 315 4,3 C 5,8 C 0,0 km/h (0 Bft)
20.09.2020 07:42 5,7 C 5,6 C 14,1 C 90 % 1016,1 hPa 0,0 l/m 0,5 km/h (0 Bft) O-NO 67 4,2 C 5,7 C 0,0 km/h (0 Bft)
20.09.2020 07:40 5,7 C 5,5 C 14,1 C 90 % 1016,1 hPa 0,0 l/m 0,5 km/h (0 Bft) NW 315 4,2 C 5,7 C 0,0 km/h (0 Bft)
20.09.2020 07:38 5,6 C 5,1 C 14,1 C 90 % 1016,1 hPa 0,0 l/m 0,5 km/h (0 Bft) NO 45 4,1 C 5,6 C 0,0 km/h (0 Bft)
20.09.2020 07:36 5,6 C 5,1 C 14,1 C 90 % 1016,1 hPa 0,0 l/m 0,5 km/h (0 Bft) NO 45 4,1 C 5,6 C 1,9 km/h (1 Bft)
20.09.2020 07:34 5,4 C 4,9 C 14,1 C 90 % 1016,1 hPa 0,0 l/m 0,5 km/h (0 Bft) S-SO 157 3,9 C 5,4 C 1,9 km/h (1 Bft)
20.09.2020 07:32 5,3 C 4,9 C 14,1 C 90 % 1016,1 hPa 0,0 l/m 0,3 km/h (0 Bft) NW 315 3,8 C 5,3 C 4,1 km/h (1 Bft)
20.09.2020 07:30 5,5 C 4,7 C 14,1 C 89 % 1016,2 hPa 0,0 l/m 0,2 km/h (0 Bft) O-SO 112 3,8 C 5,5 C 4,1 km/h (1 Bft)
20.09.2020 07:28 5,6 C 4,5 C 14,1 C 90 % 1016,2 hPa 0,0 l/m 0,0 km/h (0 Bft) O-NO 67 4,1 C 5,6 C 0,0 km/h (0 Bft)
20.09.2020 07:26 5,5 C 4,7 C 14,1 C 89 % 1016,2 hPa 0,0 l/m 0,0 km/h (0 Bft) W-NW 292 3,8 C 5,5 C 0,0 km/h (0 Bft)
20.09.2020 07:24 5,7 C 4,7 C 14,1 C 90 % 1016,2 hPa 0,0 l/m 0,0 km/h (0 Bft) SW 225 4,2 C 5,7 C 0,0 km/h (0 Bft)
20.09.2020 07:22 5,6 C 4,5 C 14,1 C 90 % 1016,2 hPa 0,0 l/m 0,0 km/h (0 Bft) W 270 4,1 C 5,6 C 0,0 km/h (0 Bft)
20.09.2020 07:20 5,7 C 4,4 C 14,1 C 90 % 1016,2 hPa 0,0 l/m 0,0 km/h (0 Bft) S-SW 202 4,2 C 5,7 C 0,0 km/h (0 Bft)
20.09.2020 07:18 5,6 C 4,5 C 14,1 C 90 % 1016,2 hPa 0,0 l/m 0,0 km/h (0 Bft) W-NW 292 4,1 C 5,6 C 0,0 km/h (0 Bft)
20.09.2020 07:16 5,6 C 4,3 C 14,1 C 89 % 1016,2 hPa 0,0 l/m 0,0 km/h (0 Bft) NW 315 3,9 C 5,6 C 0,0 km/h (0 Bft)
20.09.2020 07:14 5,4 C 4,3 C 14,1 C 89 % 1016,2 hPa 0,0 l/m 0,0 km/h (0 Bft) N-NO 22 3,7 C 5,4 C 0,0 km/h (0 Bft)
20.09.2020 07:12 5,4 C 3,9 C 14,1 C 89 % 1016,2 hPa 0,0 l/m 0,0 km/h (0 Bft) S-SW 202 3,7 C 5,4 C 0,0 km/h (0 Bft)
20.09.2020 07:10 5,4 C 3,9 C 14,1 C 89 % 1016,1 hPa 0,0 l/m 0,0 km/h (0 Bft) S-SO 157 3,7 C 5,4 C 0,0 km/h (0 Bft)
20.09.2020 07:08 5,5 C 3,9 C 14,1 C 89 % 1016,1 hPa 0,0 l/m 0,0 km/h (0 Bft) S-SW 202 3,8 C 5,5 C 0,0 km/h (0 Bft)
20.09.2020 07:06 5,5 C 4,1 C 14,2 C 89 % 1016,1 hPa 0,0 l/m 0,0 km/h (0 Bft) W-NW 292 3,8 C 5,5 C 0,0 km/h (0 Bft)
20.09.2020 07:04 5,5 C 4,1 C 14,2 C 89 % 1016,1 hPa 0,0 l/m 0,0 km/h (0 Bft) S 180 3,8 C 5,5 C 0,0 km/h (0 Bft)
20.09.2020 07:02 5,6 C 4,1 C 14,2 C 89 % 1016,1 hPa 0,0 l/m 0,0 km/h (0 Bft) S-SO 157 3,9 C 5,6 C 0,0 km/h (0 Bft)
20.09.2020 07:00 5,6 C 3,9 C 14,2 C 89 % 1016,1 hPa 0,0 l/m 0,0 km/h (0 Bft) NO 45 3,9 C 5,6 C 0,0 km/h (0 Bft)
20.09.2020 06:58 5,7 C 3,8 C 14,2 C 89 % 1016,1 hPa 0,0 l/m 0,0 km/h (0 Bft) O 90 4,0 C 5,7 C 0,0 km/h (0 Bft)
20.09.2020 06:56 5,8 C 3,8 C 14,2 C 89 % 1016,1 hPa 0,0 l/m 0,0 km/h (0 Bft) SO 135 4,1 C 5,8 C 0,0 km/h (0 Bft)
20.09.2020 06:54 5,6 C 3,8 C 14,2 C 89 % 1016,1 hPa 0,0 l/m 0,0 km/h (0 Bft) O 90 3,9 C 5,6 C 0,0 km/h (0 Bft)
20.09.2020 06:52 5,5 C 3,8 C 14,2 C 89 % 1016,1 hPa 0,0 l/m 0,0 km/h (0 Bft) NO 45 3,8 C 5,5 C 0,0 km/h (0 Bft)
20.09.2020 06:50 5,6 C 4,0 C 14,2 C 89 % 1016,0 hPa 0,0 l/m 0,0 km/h (0 Bft) N-NO 22 3,9 C 5,6 C 0,0 km/h (0 Bft)
20.09.2020 06:48 5,5 C 4,0 C 14,2 C 89 % 1016,0 hPa 0,0 l/m 0,2 km/h (0 Bft) N-NO 22 3,8 C 5,5 C 0,0 km/h (0 Bft)
20.09.2020 06:46 5,4 C 4,1 C 14,2 C 89 % 1016,0 hPa 0,0 l/m 0,2 km/h (0 Bft) N-NO 22 3,7 C 5,4 C 0,0 km/h (0 Bft)
20.09.2020 06:44 5,6 C 3,8 C 14,2 C 89 % 1016,0 hPa 0,0 l/m 0,2 km/h (0 Bft) W 270 3,9 C 5,6 C 0,0 km/h (0 Bft)
20.09.2020 06:42 5,6 C 4,0 C 14,2 C 89 % 1016,0 hPa 0,0 l/m 0,2 km/h (0 Bft) W 270 3,9 C 5,6 C 0,0 km/h (0 Bft)
20.09.2020 06:40 5,5 C 4,1 C 14,2 C 89 % 1016,0 hPa 0,0 l/m 0,2 km/h (0 Bft) S-SO 157 3,8 C 5,5 C 0,0 km/h (0 Bft)
20.09.2020 06:38 5,4 C 4,0 C 14,2 C 89 % 1016,0 hPa 0,0 l/m 0,0 km/h (0 Bft) SO 135 3,7 C 5,4 C 0,0 km/h (0 Bft)
20.09.2020 06:36 5,4 C 3,7 C 14,2 C 89 % 1016,0 hPa 0,0 l/m 0,0 km/h (0 Bft) O-SO 112 3,7 C 5,4 C 0,0 km/h (0 Bft)
20.09.2020 06:34 5,5 C 3,8 C 14,3 C 89 % 1016,0 hPa 0,0 l/m 0,2 km/h (0 Bft) SO 135 3,8 C 5,5 C 0,0 km/h (0 Bft)
20.09.2020 06:32 5,6 C 4,0 C 14,3 C 89 % 1016,0 hPa 0,0 l/m 0,3 km/h (0 Bft) N-NO 22 3,9 C 5,6 C 0,0 km/h (0 Bft)
20.09.2020 06:30 5,6 C 4,0 C 14,3 C 89 % 1016,2 hPa 0,0 l/m 0,3 km/h (0 Bft) W 270 3,9 C 5,6 C 0,0 km/h (0 Bft)
20.09.2020 06:28 5,6 C 4,0 C 14,3 C 89 % 1016,2 hPa 0,0 l/m 0,3 km/h (0 Bft) N 360 3,9 C 5,6 C 0,0 km/h (0 Bft)
20.09.2020 06:26 5,5 C 4,0 C 14,3 C 89 % 1016,2 hPa 0,0 l/m 0,3 km/h (0 Bft) NW 315 3,8 C 5,5 C 0,0 km/h (0 Bft)
20.09.2020 06:24 5,6 C 4,1 C 14,3 C 89 % 1016,2 hPa 0,0 l/m 0,3 km/h (0 Bft) W-NW 292 3,9 C 5,6 C 0,0 km/h (0 Bft)
20.09.2020 06:22 5,6 C 3,6 C 14,3 C 89 % 1016,2 hPa 0,0 l/m 0,2 km/h (0 Bft) SW 225 3,9 C 5,6 C 0,0 km/h (0 Bft)
20.09.2020 06:20 5,4 C 3,6 C 14,3 C 89 % 1016,2 hPa 0,0 l/m 0,2 km/h (0 Bft) SO 135 3,7 C 5,4 C 0,0 km/h (0 Bft)
20.09.2020 06:18 5,7 C 3,5 C 14,3 C 89 % 1016,2 hPa 0,0 l/m 0,0 km/h (0 Bft) SO 135 4,0 C 5,7 C 0,0 km/h (0 Bft)
20.09.2020 06:16 5,6 C 3,3 C 14,3 C 89 % 1016,2 hPa 0,0 l/m 0,0 km/h (0 Bft) NW 315 3,9 C 5,6 C 0,0 km/h (0 Bft)
20.09.2020 06:14 5,4 C 3,3 C 14,3 C 89 % 1016,2 hPa 0,0 l/m 0,0 km/h (0 Bft) SW 225 3,7 C 5,4 C 0,0 km/h (0 Bft)
20.09.2020 06:12 5,7 C 3,7 C 14,4 C 89 % 1016,2 hPa 0,0 l/m 0,0 km/h (0 Bft) NW 315 4,0 C 5,7 C 0,0 km/h (0 Bft)
20.09.2020 06:10 5,7 C 3,7 C 14,4 C 89 % 1016,1 hPa 0,0 l/m 0,0 km/h (0 Bft) NW 315 4,0 C 5,7 C 0,0 km/h (0 Bft)
20.09.2020 06:08 5,7 C 3,7 C 14,4 C 89 % 1016,1 hPa 0,0 l/m 0,0 km/h (0 Bft) NW 315 4,0 C 5,7 C 0,0 km/h (0 Bft)
20.09.2020 06:06 5,7 C 3,7 C 14,4 C 89 % 1016,1 hPa 0,0 l/m 0,0 km/h (0 Bft) NW 315 4,0 C 5,7 C 0,0 km/h (0 Bft)
20.09.2020 06:04 5,7 C 3,7 C 14,4 C 89 % 1016,1 hPa 0,0 l/m 0,0 km/h (0 Bft) NW 315 4,0 C 5,7 C 0,0 km/h (0 Bft)
20.09.2020 06:02 5,7 C 3,7 C 14,4 C 89 % 1016,1 hPa 0,0 l/m 0,0 km/h (0 Bft) NW 315 4,0 C 5,7 C 0,0 km/h (0 Bft)
20.09.2020 06:00 5,6 C 3,7 C 14,4 C 89 % 1016,1 hPa 0,0 l/m 0,0 km/h (0 Bft) O-NO 67 3,9 C 5,6 C 0,0 km/h (0 Bft)
20.09.2020 05:58 5,8 C 3,6 C 14,4 C 89 % 1016,1 hPa 0,0 l/m 0,0 km/h (0 Bft) NW 315 4,1 C 5,8 C 0,0 km/h (0 Bft)
20.09.2020 05:56 5,6 C 3,7 C 14,4 C 89 % 1016,1 hPa 0,0 l/m 0,0 km/h (0 Bft) N-NO 22 3,9 C 5,6 C 0,0 km/h (0 Bft)
20.09.2020 05:54 5,5 C 3,7 C 14,4 C 89 % 1016,1 hPa 0,0 l/m 0,2 km/h (0 Bft) NO 45 3,8 C 5,5 C 0,0 km/h (0 Bft)
20.09.2020 05:52 5,7 C 3,3 C 14,4 C 89 % 1016,1 hPa 0,0 l/m 0,0 km/h (0 Bft) N-NO 22 4,0 C 5,7 C 0,0 km/h (0 Bft)
20.09.2020 05:50 5,5 C 3,4 C 14,4 C 89 % 1016,4 hPa 0,0 l/m 0,2 km/h (0 Bft) NW 315 3,8 C 5,5 C 0,0 km/h (0 Bft)
20.09.2020 05:48 5,6 C 3,4 C 14,4 C 89 % 1016,4 hPa 0,0 l/m 0,2 km/h (0 Bft) N-NO 22 3,9 C 5,6 C 0,0 km/h (0 Bft)
20.09.2020 05:46 5,6 C 3,7 C 14,4 C 89 % 1016,4 hPa 0,0 l/m 0,2 km/h (0 Bft) N 360 3,9 C 5,6 C 0,0 km/h (0 Bft)
20.09.2020 05:44 5,7 C 3,7 C 14,4 C 89 % 1016,4 hPa 0,0 l/m 0,2 km/h (0 Bft) N 360 4,0 C 5,7 C 0,0 km/h (0 Bft)
20.09.2020 05:42 5,6 C 4,1 C 14,4 C 89 % 1016,4 hPa 0,0 l/m 0,2 km/h (0 Bft) O-SO 112 3,9 C 5,6 C 2,1 km/h (1 Bft)
20.09.2020 05:40 5,7 C 3,8 C 14,4 C 89 % 1016,4 hPa 0,0 l/m 0,2 km/h (0 Bft) W 270 4,0 C 5,7 C 2,1 km/h (1 Bft)
20.09.2020 05:38 5,7 C 3,6 C 14,4 C 89 % 1016,4 hPa 0,0 l/m 0,0 km/h (0 Bft) N-NO 22 4,0 C 5,7 C 0,0 km/h (0 Bft)
20.09.2020 05:36 5,7 C 3,6 C 14,5 C 89 % 1016,4 hPa 0,0 l/m 0,0 km/h (0 Bft) SW 225 4,0 C 5,7 C 0,0 km/h (0 Bft)
20.09.2020 05:34 5,7 C 3,6 C 14,5 C 89 % 1016,4 hPa 0,0 l/m 0,0 km/h (0 Bft) S-SW 202 4,0 C 5,7 C 0,0 km/h (0 Bft)
20.09.2020 05:32 5,7 C 3,4 C 14,5 C 89 % 1016,4 hPa 0,0 l/m 0,0 km/h (0 Bft) S-SO 157 4,0 C 5,7 C 0,0 km/h (0 Bft)
20.09.2020 05:30 5,9 C 3,4 C 14,5 C 89 % 1016,2 hPa 0,0 l/m 0,0 km/h (0 Bft) O-SO 112 4,2 C 5,9 C 0,0 km/h (0 Bft)
20.09.2020 05:28 5,8 C 3,7 C 14,5 C 89 % 1016,2 hPa 0,0 l/m 0,0 km/h (0 Bft) W 270 4,1 C 5,8 C 0,0 km/h (0 Bft)
20.09.2020 05:26 5,8 C 3,8 C 14,5 C 89 % 1016,2 hPa 0,0 l/m 0,0 km/h (0 Bft) N 360 4,1 C 5,8 C 0,0 km/h (0 Bft)
20.09.2020 05:24 5,7 C 4,1 C 14,5 C 89 % 1016,2 hPa 0,0 l/m 0,0 km/h (0 Bft) O 90 4,0 C 5,7 C 0,0 km/h (0 Bft)
20.09.2020 05:22 5,8 C 4,2 C 14,5 C 89 % 1016,2 hPa 0,0 l/m 0,3 km/h (0 Bft) O-NO 67 4,1 C 5,8 C 0,0 km/h (0 Bft)
20.09.2020 05:20 5,9 C 4,1 C 14,5 C 89 % 1016,2 hPa 0,0 l/m 0,2 km/h (0 Bft) N-NW 337 4,2 C 5,9 C 0,0 km/h (0 Bft)
20.09.2020 05:18 5,9 C 3,8 C 14,5 C 89 % 1016,2 hPa 0,0 l/m 0,5 km/h (0 Bft) NW 315 4,2 C 5,9 C 0,0 km/h (0 Bft)
20.09.2020 05:16 5,9 C 4,1 C 14,5 C 89 % 1016,2 hPa 0,0 l/m 0,6 km/h (0 Bft) W-NW 292 4,2 C 5,9 C 2,1 km/h (1 Bft)
20.09.2020 05:14 5,8 C 4,1 C 14,5 C 89 % 1016,2 hPa 0,0 l/m 0,8 km/h (0 Bft) N-NO 22 4,1 C 5,8 C 2,1 km/h (1 Bft)
20.09.2020 05:12 5,8 C 4,1 C 14,5 C 88 % 1016,2 hPa 0,0 l/m 0,6 km/h (0 Bft) NW 315 4,0 C 5,8 C 0,0 km/h (0 Bft)
20.09.2020 05:10 5,8 C 4,3 C 14,5 C 88 % 1016,2 hPa 0,0 l/m 0,6 km/h (0 Bft) NW 315 4,0 C 5,8 C 3,9 km/h (1 Bft)
20.09.2020 05:08 6,1 C 4,3 C 14,6 C 87 % 1016,2 hPa 0,0 l/m 0,6 km/h (0 Bft) O-SO 112 4,1 C 6,1 C 3,9 km/h (1 Bft)
20.09.2020 05:06 6,2 C 4,4 C 14,6 C 87 % 1016,2 hPa 0,0 l/m 0,5 km/h (0 Bft) NW 315 4,2 C 6,2 C 3,5 km/h (1 Bft)
20.09.2020 05:04 5,8 C 4,4 C 14,6 C 88 % 1016,2 hPa 0,0 l/m 0,2 km/h (0 Bft) O-NO 67 4,0 C 5,8 C 3,5 km/h (1 Bft)
20.09.2020 05:02 5,8 C 4,4 C 14,6 C 88 % 1016,2 hPa 0,0 l/m 0,2 km/h (0 Bft) SO 135 4,0 C 5,8 C 0,0 km/h (0 Bft)
20.09.2020 05:00 6,2 C 4,4 C 14,6 C 87 % 1016,2 hPa 0,0 l/m 0,5 km/h (0 Bft) S-SW 202 4,2 C 6,2 C 0,0 km/h (0 Bft)
20.09.2020 04:58 5,9 C 4,7 C 14,6 C 88 % 1016,2 hPa 0,0 l/m 1,1 km/h (1 Bft) SO 135 4,1 C 5,9 C 0,0 km/h (0 Bft)
20.09.2020 04:56 6,1 C 4,7 C 14,6 C 87 % 1016,2 hPa 0,0 l/m 1,3 km/h (1 Bft) N-NO 22 4,1 C 6,1 C 6,6 km/h (2 Bft)
20.09.2020 04:54 5,9 C 4,8 C 14,6 C 88 % 1016,2 hPa 0,0 l/m 1,6 km/h (1 Bft) W 270 4,1 C 5,9 C 3,9 km/h (1 Bft)
20.09.2020 04:52 5,9 C 4,5 C 14,6 C 88 % 1016,2 hPa 0,0 l/m 1,6 km/h (1 Bft) O 90 4,1 C 5,9 C 3,9 km/h (1 Bft)
20.09.2020 04:50 6,2 C 4,3 C 14,6 C 87 % 1016,5 hPa 0,0 l/m 1,3 km/h (1 Bft) W-NW 292 4,2 C 6,2 C 6,6 km/h (2 Bft)
20.09.2020 04:48 6,1 C 4,4 C 14,6 C 87 % 1016,5 hPa 0,0 l/m 1,0 km/h (0 Bft) O-NO 67 4,1 C 6,1 C 6,6 km/h (2 Bft)
20.09.2020 04:46 6,1 C 4,1 C 14,6 C 87 % 1016,5 hPa 0,0 l/m 0,6 km/h (0 Bft) W-NW 292 4,1 C 6,1 C 4,1 km/h (1 Bft)
20.09.2020 04:44 6,1 C 3,9 C 14,6 C 87 % 1016,5 hPa 0,0 l/m 0,5 km/h (0 Bft) O-NO 67 4,1 C 6,1 C 4,1 km/h (1 Bft)
20.09.2020 04:42 6,2 C 3,8 C 14,6 C 87 % 1016,5 hPa 0,0 l/m 0,5 km/h (0 Bft) NW 315 4,2 C 6,2 C 0,0 km/h (0 Bft)
20.09.2020 04:40 6,2 C 3,7 C 14,7 C 87 % 1016,5 hPa 0,0 l/m 0,5 km/h (0 Bft) N-NO 22 4,2 C 6,2 C 0,0 km/h (0 Bft)
20.09.2020 04:38 6,1 C 3,8 C 14,7 C 87 % 1016,5 hPa 0,0 l/m 0,6 km/h (0 Bft) SW 225 4,1 C 6,1 C 2,1 km/h (1 Bft)
20.09.2020 04:36 6,1 C 3,9 C 14,7 C 87 % 1016,5 hPa 0,0 l/m 0,6 km/h (0 Bft) O-SO 112 4,1 C 6,1 C 2,1 km/h (1 Bft)
20.09.2020 04:34 6,3 C 4,1 C 14,7 C 87 % 1016,5 hPa 0,0 l/m 0,6 km/h (0 Bft) NW 315 4,3 C 6,3 C 2,3 km/h (1 Bft)
20.09.2020 04:32 6,2 C 4,1 C 14,7 C 87 % 1016,5 hPa 0,0 l/m 0,5 km/h (0 Bft) O-SO 112 4,2 C 6,2 C 3,1 km/h (1 Bft)
20.09.2020 04:30 6,1 C 4,2 C 14,7 C 87 % 1016,4 hPa 0,0 l/m 0,5 km/h (0 Bft) SO 135 4,1 C 6,1 C 3,1 km/h (1 Bft)
20.09.2020 04:28 6,1 C 4,4 C 14,7 C 87 % 1016,4 hPa 0,0 l/m 0,2 km/h (0 Bft) SO 135 4,1 C 6,1 C 3,3 km/h (1 Bft)
20.09.2020 04:26 6,1 C 4,4 C 14,7 C 87 % 1016,4 hPa 0,0 l/m 0,2 km/h (0 Bft) O-NO 67 4,1 C 6,1 C 3,3 km/h (1 Bft)
20.09.2020 04:24 5,9 C 4,4 C 14,7 C 88 % 1016,4 hPa 0,0 l/m 0,0 km/h (0 Bft) O-NO 67 4,1 C 5,9 C 0,0 km/h (0 Bft)
20.09.2020 04:22 6,2 C 4,2 C 14,7 C 87 % 1016,4 hPa 0,0 l/m 0,0 km/h (0 Bft) NO 45 4,2 C 6,2 C 0,0 km/h (0 Bft)
20.09.2020 04:20 6,4 C 3,8 C 14,7 C 87 % 1016,4 hPa 0,0 l/m 0,0 km/h (0 Bft) S-SO 157 4,4 C 6,4 C 0,0 km/h (0 Bft)
20.09.2020 04:18 6,2 C 3,8 C 14,7 C 87 % 1016,4 hPa 0,0 l/m 0,0 km/h (0 Bft) N 360 4,2 C 6,2 C 0,0 km/h (0 Bft)
20.09.2020 04:16 6,3 C 3,9 C 14,7 C 87 % 1016,4 hPa 0,0 l/m 0,0 km/h (0 Bft) SO 135 4,3 C 6,3 C 0,0 km/h (0 Bft)
20.09.2020 04:14 6,4 C 3,9 C 14,7 C 87 % 1016,4 hPa 0,0 l/m 0,0 km/h (0 Bft) NW 315 4,4 C 6,4 C 0,0 km/h (0 Bft)
20.09.2020 04:12 6,3 C 4,1 C 14,8 C 87 % 1016,4 hPa 0,0 l/m 0,0 km/h (0 Bft) N-NW 337 4,3 C 6,3 C 0,0 km/h (0 Bft)
20.09.2020 04:10 6,3 C 4,1 C 14,8 C 87 % 1016,5 hPa 0,0 l/m 0,0 km/h (0 Bft) NW 315 4,3 C 6,3 C 0,0 km/h (0 Bft)
20.09.2020 04:08 6,2 C 4,1 C 14,8 C 87 % 1016,5 hPa 0,0 l/m 0,0 km/h (0 Bft) N-NO 22 4,2 C 6,2 C 0,0 km/h (0 Bft)
20.09.2020 04:06 6,3 C 4,2 C 14,8 C 87 % 1016,5 hPa 0,0 l/m 0,3 km/h (0 Bft) S 180 4,3 C 6,3 C 0,0 km/h (0 Bft)
20.09.2020 04:04 6,3 C 4,3 C 14,8 C 87 % 1016,5 hPa 0,0 l/m 0,5 km/h (0 Bft) S-SO 157 4,3 C 6,3 C 0,0 km/h (0 Bft)
20.09.2020 04:02 6,2 C 4,4 C 14,8 C 87 % 1016,5 hPa 0,0 l/m 0,6 km/h (0 Bft) S 180 4,2 C 6,2 C 0,0 km/h (0 Bft)
20.09.2020 04:00 6,3 C 4,8 C 14,8 C 87 % 1016,5 hPa 0,0 l/m 0,8 km/h (0 Bft) W-SW 247 4,3 C 6,3 C 0,0 km/h (0 Bft)
20.09.2020 03:58 6,3 C 4,9 C 14,8 C 87 % 1016,5 hPa 0,0 l/m 0,8 km/h (0 Bft) O-SO 112 4,3 C 6,3 C 3,7 km/h (1 Bft)
20.09.2020 03:56 6,7 C 4,8 C 14,8 C 87 % 1016,5 hPa 0,0 l/m 0,8 km/h (0 Bft) O-SO 112 4,7 C 6,7 C 3,7 km/h (1 Bft)
20.09.2020 03:54 6,5 C 5,0 C 14,8 C 87 % 1016,5 hPa 0,0 l/m 0,8 km/h (0 Bft) NW 315 4,5 C 6,5 C 0,0 km/h (0 Bft)
20.09.2020 03:52 6,4 C 5,4 C 14,8 C 87 % 1016,5 hPa 0,0 l/m 0,8 km/h (0 Bft) S 180 4,4 C 6,4 C 3,1 km/h (1 Bft)
20.09.2020 03:50 6,7 C 4,9 C 14,8 C 87 % 1016,5 hPa 0,0 l/m 0,6 km/h (0 Bft) S-SO 157 4,7 C 6,7 C 3,1 km/h (1 Bft)
20.09.2020 03:48 6,7 C 4,9 C 14,8 C 87 % 1016,5 hPa 0,0 l/m 0,6 km/h (0 Bft) NW 315 4,7 C 6,7 C 4,1 km/h (1 Bft)
20.09.2020 03:46 6,6 C 5,0 C 14,9 C 87 % 1016,5 hPa 0,0 l/m 0,8 km/h (0 Bft) SO 135 4,6 C 6,6 C 4,1 km/h (1 Bft)
20.09.2020 03:44 6,7 C 4,7 C 14,9 C 87 % 1016,5 hPa 0,0 l/m 0,3 km/h (0 Bft) W 270 4,7 C 6,7 C 2,3 km/h (1 Bft)
20.09.2020 03:42 6,3 C 4,7 C 14,9 C 87 % 1016,5 hPa 0,0 l/m 0,3 km/h (0 Bft) O-SO 112 4,3 C 6,3 C 2,3 km/h (1 Bft)
20.09.2020 03:40 6,3 C 4,8 C 14,9 C 87 % 1016,5 hPa 0,0 l/m 0,3 km/h (0 Bft) N 360 4,3 C 6,3 C 0,0 km/h (0 Bft)
20.09.2020 03:38 6,6 C 4,8 C 14,9 C 87 % 1016,5 hPa 0,0 l/m 0,3 km/h (0 Bft) S-SW 202 4,6 C 6,6 C 3,1 km/h (1 Bft)
20.09.2020 03:36 6,6 C 4,9 C 14,9 C 87 % 1016,5 hPa 0,0 l/m 0,3 km/h (0 Bft) O-NO 67 4,6 C 6,6 C 3,1 km/h (1 Bft)
20.09.2020 03:34 6,6 C 4,8 C 14,9 C 87 % 1016,5 hPa 0,0 l/m 0,2 km/h (0 Bft) O-NO 67 4,6 C 6,6 C 0,0 km/h (0 Bft)
20.09.2020 03:32 6,5 C 5,0 C 14,9 C 87 % 1016,5 hPa 0,0 l/m 0,2 km/h (0 Bft) O-NO 67 4,5 C 6,5 C 2,3 km/h (1 Bft)
20.09.2020 03:30 6,5 C 5,0 C 14,9 C 87 % 1016,4 hPa 0,0 l/m 0,2 km/h (0 Bft) O 90 4,5 C 6,5 C 2,3 km/h (1 Bft)
20.09.2020 03:28 6,7 C 4,8 C 14,9 C 87 % 1016,4 hPa 0,0 l/m 0,0 km/h (0 Bft) NW 315 4,7 C 6,7 C 0,0 km/h (0 Bft)
20.09.2020 03:26 6,6 C 4,9 C 14,9 C 87 % 1016,4 hPa 0,0 l/m 0,2 km/h (0 Bft) NW 315 4,6 C 6,6 C 0,0 km/h (0 Bft)
20.09.2020 03:24 6,4 C 5,0 C 14,9 C 87 % 1016,4 hPa 0,0 l/m 0,3 km/h (0 Bft) S-SO 157 4,4 C 6,4 C 0,0 km/h (0 Bft)
20.09.2020 03:22 6,4 C 5,1 C 14,9 C 87 % 1016,4 hPa 0,0 l/m 0,3 km/h (0 Bft) W 270 4,4 C 6,4 C 0,0 km/h (0 Bft)
20.09.2020 03:20 6,5 C 5,1 C 14,9 C 87 % 1016,4 hPa 0,0 l/m 0,3 km/h (0 Bft) S-SO 157 4,5 C 6,5 C 0,0 km/h (0 Bft)
20.09.2020 03:18 6,5 C 5,3 C 15,0 C 87 % 1016,4 hPa 0,0 l/m 0,3 km/h (0 Bft) NO 45 4,5 C 6,5 C 0,0 km/h (0 Bft)
20.09.2020 03:16 6,7 C 5,0 C 15,0 C 87 % 1016,4 hPa 0,0 l/m 0,2 km/h (0 Bft) S 180 4,7 C 6,7 C 0,0 km/h (0 Bft)
20.09.2020 03:14 6,6 C 4,9 C 15,0 C 87 % 1016,4 hPa 0,0 l/m 0,2 km/h (0 Bft) S-SO 157 4,6 C 6,6 C 0,0 km/h (0 Bft)
20.09.2020 03:12 6,6 C 5,5 C 15,0 C 86 % 1016,4 hPa 0,0 l/m 0,0 km/h (0 Bft) SO 135 4,4 C 6,6 C 0,0 km/h (0 Bft)
20.09.2020 03:10 6,6 C 5,5 C 15,0 C 86 % 1016,8 hPa 0,0 l/m 0,5 km/h (0 Bft) O-NO 67 4,4 C 6,6 C 0,0 km/h (0 Bft)
20.09.2020 03:08 6,6 C 5,5 C 15,0 C 86 % 1016,8 hPa 0,0 l/m 0,5 km/h (0 Bft) O-NO 67 4,4 C 6,6 C 0,0 km/h (0 Bft)
20.09.2020 03:06 6,6 C 5,5 C 15,0 C 86 % 1016,8 hPa 0,0 l/m 0,5 km/h (0 Bft) O-NO 67 4,4 C 6,6 C 0,0 km/h (0 Bft)
20.09.2020 03:04 6,6 C 5,5 C 15,0 C 86 % 1016,8 hPa 0,0 l/m 0,5 km/h (0 Bft) O-NO 67 4,4 C 6,6 C 0,0 km/h (0 Bft)
20.09.2020 03:02 6,6 C 5,5 C 15,0 C 86 % 1016,8 hPa 0,0 l/m 0,5 km/h (0 Bft) O-NO 67 4,4 C 6,6 C 2,9 km/h (1 Bft)
20.09.2020 03:00 6,5 C 5,4 C 15,0 C 86 % 1016,8 hPa 0,0 l/m 0,3 km/h (0 Bft) W 270 4,3 C 6,5 C 2,9 km/h (1 Bft)
20.09.2020 02:58 6,6 C 5,6 C 15,0 C 86 % 1016,8 hPa 0,0 l/m 0,2 km/h (0 Bft) S-SO 157 4,4 C 6,6 C 2,5 km/h (1 Bft)
20.09.2020 02:56 6,7 C 5,7 C 15,0 C 86 % 1016,8 hPa 0,0 l/m 0,3 km/h (0 Bft) S-SW 202 4,5 C 6,7 C 2,5 km/h (1 Bft)
20.09.2020 02:54 6,9 C 5,3 C 15,0 C 86 % 1016,8 hPa 0,0 l/m 0,2 km/h (0 Bft) W 270 4,7 C 6,9 C 0,0 km/h (0 Bft)
20.09.2020 02:52 6,8 C 5,3 C 15,1 C 86 % 1016,8 hPa 0,0 l/m 0,3 km/h (0 Bft) O-NO 67 4,6 C 6,8 C 0,0 km/h (0 Bft)
20.09.2020 02:50 6,8 C 5,1 C 15,1 C 86 % 1016,8 hPa 0,0 l/m 0,3 km/h (0 Bft) W-SW 247 4,6 C 6,8 C 0,0 km/h (0 Bft)
20.09.2020 02:48 6,8 C 5,1 C 15,1 C 86 % 1016,8 hPa 0,0 l/m 0,6 km/h (0 Bft) S-SO 157 4,6 C 6,8 C 0,0 km/h (0 Bft)
20.09.2020 02:46 6,8 C 5,3 C 15,1 C 86 % 1016,8 hPa 0,0 l/m 0,6 km/h (0 Bft) SW 225 4,6 C 6,8 C 0,0 km/h (0 Bft)
20.09.2020 02:44 6,8 C 5,4 C 15,1 C 86 % 1016,8 hPa 0,0 l/m 0,6 km/h (0 Bft) S-SO 157 4,6 C 6,8 C 2,5 km/h (1 Bft)
20.09.2020 02:42 6,8 C 5,5 C 15,1 C 86 % 1016,8 hPa 0,0 l/m 0,5 km/h (0 Bft) N-NO 22 4,6 C 6,8 C 2,5 km/h (1 Bft)
20.09.2020 02:40 6,8 C 5,4 C 15,1 C 86 % 1016,8 hPa 0,0 l/m 0,8 km/h (0 Bft) S-SO 157 4,6 C 6,8 C 2,9 km/h (1 Bft)
20.09.2020 02:38 6,7 C 5,4 C 15,1 C 86 % 1016,8 hPa 0,0 l/m 0,6 km/h (0 Bft) O-NO 67 4,5 C 6,7 C 2,9 km/h (1 Bft)
20.09.2020 02:36 6,8 C 5,3 C 15,1 C 86 % 1016,8 hPa 0,0 l/m 0,3 km/h (0 Bft) O-SO 112 4,6 C 6,8 C 0,0 km/h (0 Bft)
20.09.2020 02:34 6,7 C 5,7 C 15,1 C 86 % 1016,8 hPa 0,0 l/m 0,5 km/h (0 Bft) O-NO 67 4,5 C 6,7 C 0,0 km/h (0 Bft)
20.09.2020 02:32 6,5 C 6,0 C 15,1 C 86 % 1016,8 hPa 0,0 l/m 0,6 km/h (0 Bft) W-NW 292 4,3 C 6,5 C 3,7 km/h (1 Bft)
20.09.2020 02:30 7,0 C 5,3 C 15,1 C 86 % 1016,9 hPa 0,0 l/m 0,5 km/h (0 Bft) NW 315 4,8 C 7,0 C 3,7 km/h (1 Bft)
20.09.2020 02:28 6,9 C 5,3 C 15,1 C 86 % 1016,9 hPa 0,0 l/m 0,3 km/h (0 Bft) O-NO 67 4,7 C 6,9 C 0,0 km/h (0 Bft)
20.09.2020 02:26 7,0 C 5,1 C 15,2 C 86 % 1016,9 hPa 0,0 l/m 0,3 km/h (0 Bft) O-SO 112 4,8 C 7,0 C 0,0 km/h (0 Bft)
20.09.2020 02:24 6,9 C 5,1 C 15,2 C 86 % 1016,9 hPa 0,0 l/m 0,3 km/h (0 Bft) NW 315 4,7 C 6,9 C 2,1 km/h (1 Bft)
20.09.2020 02:22 6,8 C 4,9 C 15,2 C 86 % 1016,9 hPa 0,0 l/m 0,0 km/h (0 Bft) S-SO 157 4,6 C 6,8 C 2,1 km/h (1 Bft)
20.09.2020 02:20 6,8 C 4,8 C 15,2 C 86 % 1016,9 hPa 0,0 l/m 0,0 km/h (0 Bft) S-SW 202 4,6 C 6,8 C 0,0 km/h (0 Bft)
20.09.2020 02:18 6,7 C 4,9 C 15,2 C 86 % 1016,9 hPa 0,0 l/m 0,0 km/h (0 Bft) W-SW 247 4,5 C 6,7 C 0,0 km/h (0 Bft)
20.09.2020 02:16 6,7 C 4,9 C 15,2 C 86 % 1016,9 hPa 0,0 l/m 0,0 km/h (0 Bft) SO 135 4,5 C 6,7 C 0,0 km/h (0 Bft)
20.09.2020 02:14 6,8 C 5,0 C 15,2 C 86 % 1016,9 hPa 0,0 l/m 0,2 km/h (0 Bft) S-SW 202 4,6 C 6,8 C 0,0 km/h (0 Bft)
20.09.2020 02:12 7,0 C 5,1 C 15,2 C 85 % 1016,9 hPa 0,0 l/m 0,2 km/h (0 Bft) SO 135 4,7 C 7,0 C 0,0 km/h (0 Bft)
20.09.2020 02:10 6,9 C 5,3 C 15,2 C 86 % 1017,1 hPa 0,0 l/m 0,2 km/h (0 Bft) W 270 4,7 C 6,9 C 0,0 km/h (0 Bft)
20.09.2020 02:08 7,0 C 5,4 C 15,2 C 85 % 1017,1 hPa 0,0 l/m 0,2 km/h (0 Bft) S 180 4,7 C 7,0 C 0,0 km/h (0 Bft)
20.09.2020 02:06 7,0 C 5,6 C 15,2 C 85 % 1017,1 hPa 0,0 l/m 0,2 km/h (0 Bft) S-SW 202 4,7 C 7,0 C 3,5 km/h (1 Bft)
20.09.2020 02:04 7,0 C 5,0 C 15,2 C 85 % 1017,1 hPa 0,0 l/m 0,2 km/h (0 Bft) O 90 4,7 C 7,0 C 3,5 km/h (1 Bft)
20.09.2020 02:02 7,2 C 5,0 C 15,2 C 85 % 1017,1 hPa 0,0 l/m 0,0 km/h (0 Bft) O-NO 67 4,9 C 7,2 C 0,0 km/h (0 Bft)
20.09.2020 02:00 7,1 C 5,1 C 15,3 C 85 % 1017,1 hPa 0,0 l/m 0,0 km/h (0 Bft) O-SO 112 4,8 C 7,1 C 0,0 km/h (0 Bft)
20.09.2020 01:58 7,1 C 5,2 C 15,3 C 85 % 1017,1 hPa 0,0 l/m 0,0 km/h (0 Bft) O 90 4,8 C 7,1 C 0,0 km/h (0 Bft)
20.09.2020 01:56 7,1 C 5,2 C 15,3 C 85 % 1017,1 hPa 0,0 l/m 0,0 km/h (0 Bft) O-SO 112 4,8 C 7,1 C 0,0 km/h (0 Bft)
20.09.2020 01:54 7,0 C 5,5 C 15,3 C 85 % 1017,1 hPa 0,0 l/m 0,0 km/h (0 Bft) O-NO 67 4,7 C 7,0 C 0,0 km/h (0 Bft)
20.09.2020 01:52 7,0 C 5,7 C 15,3 C 85 % 1017,1 hPa 0,0 l/m 0,0 km/h (0 Bft) NW 315 4,7 C 7,0 C 0,0 km/h (0 Bft)
20.09.2020 01:50 7,0 C 5,7 C 15,3 C 85 % 1017,1 hPa 0,0 l/m 0,2 km/h (0 Bft) O-SO 112 4,7 C 7,0 C 0,0 km/h (0 Bft)
20.09.2020 01:48 7,1 C 5,7 C 15,3 C 85 % 1017,1 hPa 0,0 l/m 0,2 km/h (0 Bft) S-SW 202 4,8 C 7,1 C 0,0 km/h (0 Bft)
20.09.2020 01:46 6,9 C 5,8 C 15,3 C 85 % 1017,1 hPa 0,0 l/m 0,6 km/h (0 Bft) W-NW 292 4,6 C 6,9 C 0,0 km/h (0 Bft)
20.09.2020 01:44 7,0 C 5,8 C 15,3 C 85 % 1017,1 hPa 0,0 l/m 0,8 km/h (0 Bft) SO 135 4,7 C 7,0 C 0,0 km/h (0 Bft)
20.09.2020 01:42 7,1 C 5,8 C 15,3 C 85 % 1017,1 hPa 0,0 l/m 1,1 km/h (1 Bft) W 270 4,8 C 7,1 C 0,0 km/h (0 Bft)
20.09.2020 01:40 7,3 C 5,6 C 15,3 C 85 % 1017,1 hPa 0,0 l/m 1,1 km/h (1 Bft) S-SW 202 4,9 C 7,3 C 0,0 km/h (0 Bft)
20.09.2020 01:38 7,1 C 5,7 C 15,3 C 85 % 1017,1 hPa 0,0 l/m 1,1 km/h (1 Bft) W 270 4,8 C 7,1 C 5,6 km/h (1 Bft)
20.09.2020 01:36 7,0 C 5,8 C 15,3 C 85 % 1017,1 hPa 0,0 l/m 1,0 km/h (0 Bft) O-SO 112 4,7 C 7,0 C 5,6 km/h (1 Bft)
20.09.2020 01:34 7,0 C 5,7 C 15,4 C 85 % 1017,1 hPa 0,0 l/m 0,6 km/h (0 Bft) W 270 4,7 C 7,0 C 5,0 km/h (1 Bft)
20.09.2020 01:32 7,2 C 5,6 C 15,4 C 85 % 1017,1 hPa 0,0 l/m 0,3 km/h (0 Bft) O-NO 67 4,9 C 7,2 C 5,0 km/h (1 Bft)
20.09.2020 01:30 7,0 C 5,5 C 15,4 C 85 % 1017,1 hPa 0,0 l/m 0,2 km/h (0 Bft) W-SW 247 4,7 C 7,0 C 0,0 km/h (0 Bft)
20.09.2020 01:28 7,1 C 5,2 C 15,4 C 85 % 1017,1 hPa 0,0 l/m 0,3 km/h (0 Bft) SO 135 4,8 C 7,1 C 1,9 km/h (1 Bft)
20.09.2020 01:26 7,1 C 5,2 C 15,4 C 85 % 1017,1 hPa 0,0 l/m 0,3 km/h (0 Bft) NW 315 4,8 C 7,1 C 1,9 km/h (1 Bft)
20.09.2020 01:24 7,1 C 5,3 C 15,4 C 85 % 1017,1 hPa 0,0 l/m 0,3 km/h (0 Bft) NW 315 4,8 C 7,1 C 0,0 km/h (0 Bft)
20.09.2020 01:22 7,1 C 5,6 C 15,4 C 85 % 1017,1 hPa 0,0 l/m 0,3 km/h (0 Bft) S-SW 202 4,8 C 7,1 C 0,0 km/h (0 Bft)
20.09.2020 01:20 7,1 C 5,9 C 15,4 C 85 % 1017,1 hPa 0,0 l/m 0,3 km/h (0 Bft) S-SO 157 4,8 C 7,1 C 2,9 km/h (1 Bft)
20.09.2020 01:18 7,4 C 5,3 C 15,4 C 85 % 1017,1 hPa 0,0 l/m 0,2 km/h (0 Bft) S 180 5,0 C 7,4 C 2,9 km/h (1 Bft)
20.09.2020 01:16 7,6 C 5,1 C 15,4 C 85 % 1017,1 hPa 0,0 l/m 0,0 km/h (0 Bft) SO 135 5,2 C 7,6 C 0,0 km/h (0 Bft)
20.09.2020 01:14 7,5 C 5,2 C 15,4 C 84 % 1017,1 hPa 0,0 l/m 0,0 km/h (0 Bft) SW 225 5,0 C 7,5 C 0,0 km/h (0 Bft)
20.09.2020 01:12 7,5 C 5,3 C 15,4 C 84 % 1017,1 hPa 0,0 l/m 0,0 km/h (0 Bft) O-SO 112 5,0 C 7,5 C 0,0 km/h (0 Bft)
20.09.2020 01:10 7,5 C 5,2 C 15,5 C 84 % 1017,4 hPa 0,0 l/m 0,2 km/h (0 Bft) O-SO 112 5,0 C 7,5 C 0,0 km/h (0 Bft)
20.09.2020 01:08 7,4 C 5,3 C 15,5 C 84 % 1017,4 hPa 0,0 l/m 0,5 km/h (0 Bft) NW 315 4,9 C 7,4 C 0,0 km/h (0 Bft)
20.09.2020 01:06 7,4 C 5,5 C 15,5 C 84 % 1017,4 hPa 0,0 l/m 0,6 km/h (0 Bft) O-SO 112 4,9 C 7,4 C 0,0 km/h (0 Bft)
20.09.2020 01:04 7,3 C 5,5 C 15,5 C 84 % 1017,4 hPa 0,0 l/m 0,6 km/h (0 Bft) N-NW 337 4,8 C 7,3 C 0,0 km/h (0 Bft)
20.09.2020 01:02 7,1 C 5,6 C 15,5 C 84 % 1017,4 hPa 0,0 l/m 0,6 km/h (0 Bft) SO 135 4,6 C 7,1 C 2,3 km/h (1 Bft)
20.09.2020 01:00 7,2 C 5,8 C 15,5 C 84 % 1017,4 hPa 0,0 l/m 0,6 km/h (0 Bft) NO 45 4,7 C 7,2 C 2,5 km/h (1 Bft)
20.09.2020 00:58 7,4 C 5,2 C 15,5 C 84 % 1017,4 hPa 0,0 l/m 0,3 km/h (0 Bft) NW 315 4,9 C 7,4 C 2,5 km/h (1 Bft)
20.09.2020 00:56 7,3 C 5,2 C 15,5 C 84 % 1017,4 hPa 0,0 l/m 0,0 km/h (0 Bft) N-NW 337 4,8 C 7,3 C 0,0 km/h (0 Bft)
20.09.2020 00:54 7,2 C 5,2 C 15,5 C 84 % 1017,4 hPa 0,0 l/m 0,0 km/h (0 Bft) N 360 4,7 C 7,2 C 0,0 km/h (0 Bft)
20.09.2020 00:52 7,3 C 5,5 C 15,5 C 84 % 1017,4 hPa 0,0 l/m 0,0 km/h (0 Bft) W 270 4,8 C 7,3 C 0,0 km/h (0 Bft)
20.09.2020 00:50 7,4 C 5,6 C 15,5 C 84 % 1017,5 hPa 0,0 l/m 0,2 km/h (0 Bft) N-NO 22 4,9 C 7,4 C 0,0 km/h (0 Bft)
20.09.2020 00:48 7,4 C 5,6 C 15,5 C 84 % 1017,5 hPa 0,0 l/m 0,5 km/h (0 Bft) S-SO 157 4,9 C 7,4 C 0,0 km/h (0 Bft)
20.09.2020 00:46 7,5 C 5,9 C 15,6 C 84 % 1017,5 hPa 0,0 l/m 0,5 km/h (0 Bft) W-NW 292 5,0 C 7,5 C 0,0 km/h (0 Bft)
20.09.2020 00:44 7,6 C 6,2 C 15,6 C 84 % 1017,5 hPa 0,0 l/m 0,5 km/h (0 Bft) S-SO 157 5,1 C 7,6 C 0,0 km/h (0 Bft)
20.09.2020 00:42 7,8 C 5,7 C 15,6 C 84 % 1017,5 hPa 0,0 l/m 0,5 km/h (0 Bft) S-SO 157 5,3 C 7,8 C 2,5 km/h (1 Bft)
20.09.2020 00:40 7,8 C 5,6 C 15,6 C 84 % 1017,5 hPa 0,0 l/m 0,3 km/h (0 Bft) SO 135 5,3 C 7,8 C 3,5 km/h (1 Bft)
20.09.2020 00:38 7,8 C 5,5 C 15,6 C 84 % 1017,5 hPa 0,0 l/m 0,2 km/h (0 Bft) O-SO 112 5,3 C 7,8 C 3,5 km/h (1 Bft)
20.09.2020 00:36 7,8 C 5,5 C 15,6 C 84 % 1017,5 hPa 0,0 l/m 0,0 km/h (0 Bft) N-NO 22 5,3 C 7,8 C 0,0 km/h (0 Bft)
20.09.2020 00:34 7,8 C 5,6 C 15,6 C 84 % 1017,5 hPa 0,0 l/m 0,0 km/h (0 Bft) S-SO 157 5,3 C 7,8 C 0,0 km/h (0 Bft)
20.09.2020 00:32 7,8 C 5,3 C 15,6 C 84 % 1017,5 hPa 0,0 l/m 0,0 km/h (0 Bft) O-NO 67 5,3 C 7,8 C 0,0 km/h (0 Bft)
20.09.2020 00:30 7,6 C 5,7 C 15,6 C 84 % 1017,8 hPa 0,0 l/m 0,0 km/h (0 Bft) S-SO 157 5,1 C 7,6 C 0,0 km/h (0 Bft)
20.09.2020 00:28 7,6 C 5,8 C 15,6 C 84 % 1017,8 hPa 0,0 l/m 0,0 km/h (0 Bft) SO 135 5,1 C 7,6 C 0,0 km/h (0 Bft)
20.09.2020 00:26 7,6 C 5,9 C 15,6 C 84 % 1017,8 hPa 0,0 l/m 0,0 km/h (0 Bft) W-NW 292 5,1 C 7,6 C 0,0 km/h (0 Bft)
20.09.2020 00:24 7,6 C 5,8 C 15,6 C 84 % 1017,8 hPa 0,0 l/m 0,0 km/h (0 Bft) O-NO 67 5,1 C 7,6 C 0,0 km/h (0 Bft)
20.09.2020 00:22 7,8 C 5,3 C 15,7 C 84 % 1017,8 hPa 0,0 l/m 0,2 km/h (0 Bft) O-SO 112 5,3 C 7,8 C 0,0 km/h (0 Bft)
20.09.2020 00:20 8,0 C 5,3 C 15,7 C 83 % 1017,8 hPa 0,0 l/m 0,2 km/h (0 Bft) O 90 5,3 C 8,0 C 0,0 km/h (0 Bft)
20.09.2020 00:18 7,8 C 5,3 C 15,7 C 84 % 1017,8 hPa 0,0 l/m 0,2 km/h (0 Bft) W 270 5,3 C 7,8 C 0,0 km/h (0 Bft)
20.09.2020 00:16 7,6 C 5,5 C 15,7 C 83 % 1017,8 hPa 0,0 l/m 0,2 km/h (0 Bft) O-NO 67 4,9 C 7,6 C 0,0 km/h (0 Bft)
20.09.2020 00:14 7,6 C 5,6 C 15,7 C 83 % 1017,8 hPa 0,0 l/m 0,2 km/h (0 Bft) W 270 4,9 C 7,6 C 0,0 km/h (0 Bft)
20.09.2020 00:12 7,9 C 5,8 C 15,7 C 83 % 1017,8 hPa 0,0 l/m 0,0 km/h (0 Bft) O-NO 67 5,2 C 7,9 C 0,0 km/h (0 Bft)
20.09.2020 00:10 7,9 C 5,8 C 15,7 C 83 % 1017,7 hPa 0,0 l/m 0,0 km/h (0 Bft) O-NO 67 5,2 C 7,9 C 0,0 km/h (0 Bft)
20.09.2020 00:08 7,9 C 5,8 C 15,7 C 83 % 1017,7 hPa 0,0 l/m 0,0 km/h (0 Bft) O-NO 67 5,2 C 7,9 C 0,0 km/h (0 Bft)
20.09.2020 00:06 7,9 C 5,8 C 15,7 C 83 % 1017,7 hPa 0,0 l/m 0,0 km/h (0 Bft) O-NO 67 5,2 C 7,9 C 0,0 km/h (0 Bft)
20.09.2020 00:04 7,9 C 5,8 C 15,7 C 83 % 1017,7 hPa 0,0 l/m 0,0 km/h (0 Bft) O-NO 67 5,2 C 7,9 C 0,0 km/h (0 Bft)
20.09.2020 00:02 7,9 C 5,8 C 15,7 C 83 % 1017,7 hPa 0,0 l/m 0,0 km/h (0 Bft) O-NO 67 5,2 C 7,9 C 0,0 km/h (0 Bft)
20.09.2020 00:00 7,9 C 5,9 C 15,7 C 83 % 1017,7 hPa 0,0 l/m 0,0 km/h (0 Bft) O 90 5,2 C 7,9 C 0,0 km/h (0 Bft)
_ Min-Zeit 07:32 05:52 08:40 15:28 18:12 - 00:00 - - 06:14 07:32 00:00
Minimum _ 5,3 C 3,3 C 13,9 C 51 % 1014,6 hPa - 0,0 km/h (0 Bft) - - 3,7 C 5,3 C 0,0 km/h (0 Bft)
_ Max-Zeit 15:46 14:02 17:32 07:18 00:12 10:58 10:34 - - 10:44 15:46 11:56
Maximum _ 23,1 C 31,1 C 17,5 C 90 % 1017,8 hPa 0,2 l/m 8,0 km/h
W (2 Bft)
- - 13,9 C 23,1 C 29,2 km/h
NW (5 Bft)
Durchschnitt _ 13,2 C 13,5 C 15,7 C 74 % 1016,0 hPa #0,2 l/m 1,8 km/h (1 Bft) O-NO - 8,1 C 13,1 C 3,9 km/h (1 Bft)